Wetterdaten: Dienstag, 06.04.2021
Datum Zeit Temp. Aussen Temp. o. S. Temp +5cm Feuchte Auss Luftdruck Regen Sonnenschein Regendauer Solar Windben Empfang
06.04.2021 00:00 0,9 C 0,6 C -1,1 C 90 % 1013,0 hPa 0,0 l/m 0 min 0 min 0 W/m 19,3 km/h (3 Bft) 100,00 %
06.04.2021 00:02 0,9 C 0,6 C -1,1 C 91 % 1012,9 hPa 0,0 l/m 0 min 0 min 0 W/m 12,9 km/h (3 Bft) 100,00 %
06.04.2021 00:04 0,8 C 0,6 C -1,1 C 91 % 1012,8 hPa 0,0 l/m 0 min 0 min 0 W/m 16,1 km/h (3 Bft) 100,00 %
06.04.2021 00:08 0,8 C 0,0 C -1,6 C 91 % 1012,7 hPa 0,0 l/m 0 min 0 min 0 W/m 19,3 km/h (3 Bft) 100,00 %
06.04.2021 00:10 0,6 C 0,0 C -2,2 C 92 % 1012,8 hPa 0,0 l/m 0 min 0 min 0 W/m 19,3 km/h (3 Bft) 100,00 %
06.04.2021 00:12 0,6 C 0,0 C -2,2 C 92 % 1012,9 hPa 0,0 l/m 0 min 0 min 0 W/m 12,9 km/h (3 Bft) 100,00 %
06.04.2021 00:14 0,5 C 0,0 C -2,2 C 92 % 1012,9 hPa 0,0 l/m 0 min 0 min 0 W/m 12,9 km/h (3 Bft) 100,00 %
06.04.2021 00:16 0,5 C 0,0 C -2,2 C 93 % 1013,0 hPa 0,0 l/m 0 min 0 min 0 W/m 12,9 km/h (3 Bft) 97,87 %
06.04.2021 00:18 0,5 C 0,0 C -2,2 C 93 % 1013,0 hPa 0,0 l/m 0 min 0 min 0 W/m 16,1 km/h (3 Bft) 100,00 %
06.04.2021 00:20 0,5 C 0,0 C -2,2 C 93 % 1013,1 hPa 0,0 l/m 0 min 0 min 0 W/m 16,1 km/h (3 Bft) 100,00 %
06.04.2021 00:22 0,5 C 0,0 C -2,2 C 93 % 1013,0 hPa 0,0 l/m 0 min 0 min 0 W/m 16,1 km/h (3 Bft) 100,00 %
06.04.2021 00:24 0,5 C 0,0 C -2,2 C 93 % 1013,0 hPa 0,0 l/m 0 min 0 min 0 W/m 19,3 km/h (3 Bft) 100,00 %
06.04.2021 00:26 0,5 C 0,0 C -2,2 C 94 % 1013,0 hPa 0,0 l/m 0 min 0 min 0 W/m 12,9 km/h (3 Bft) 100,00 %
06.04.2021 00:28 0,5 C 0,0 C -2,2 C 94 % 1013,1 hPa 0,0 l/m 0 min 0 min 0 W/m 12,9 km/h (3 Bft) 100,00 %
06.04.2021 00:30 0,5 C 0,0 C -2,2 C 94 % 1013,1 hPa 0,0 l/m 0 min 0 min 0 W/m 12,9 km/h (3 Bft) 97,87 %
06.04.2021 00:32 0,5 C 0,0 C -2,2 C 94 % 1013,1 hPa 0,0 l/m 0 min 0 min 0 W/m 12,9 km/h (3 Bft) 95,83 %
06.04.2021 00:34 0,5 C 0,0 C -2,2 C 94 % 1013,1 hPa 0,0 l/m 0 min 0 min 0 W/m 12,9 km/h (3 Bft) 95,74 %
06.04.2021 00:36 0,5 C 0,0 C -2,2 C 94 % 1012,9 hPa 0,0 l/m 0 min 0 min 0 W/m 16,1 km/h (3 Bft) 100,00 %
06.04.2021 00:38 0,5 C 0,0 C -1,6 C 94 % 1012,9 hPa 0,0 l/m 0 min 0 min 0 W/m 9,7 km/h (2 Bft) 100,00 %
06.04.2021 00:40 0,5 C 0,0 C -1,6 C 94 % 1012,9 hPa 0,0 l/m 0 min 0 min 0 W/m 9,7 km/h (2 Bft) 100,00 %
06.04.2021 00:42 0,5 C 0,0 C -1,6 C 95 % 1012,9 hPa 0,0 l/m 0 min 0 min 0 W/m 16,1 km/h (3 Bft) 100,00 %
06.04.2021 00:44 0,5 C 0,0 C -1,6 C 95 % 1012,8 hPa 0,0 l/m 0 min 0 min 0 W/m 16,1 km/h (3 Bft) 97,87 %
06.04.2021 00:46 0,5 C 0,0 C -1,6 C 95 % 1012,8 hPa 0,0 l/m 0 min 0 min 0 W/m 12,9 km/h (3 Bft) 100,00 %
06.04.2021 00:48 0,5 C 0,0 C -1,6 C 95 % 1012,9 hPa 0,0 l/m 0 min 0 min 0 W/m 12,9 km/h (3 Bft) 100,00 %
06.04.2021 00:50 0,5 C 0,0 C -1,6 C 95 % 1012,9 hPa 0,0 l/m 0 min 0 min 0 W/m 16,1 km/h (3 Bft) 100,00 %
06.04.2021 00:52 0,6 C 0,0 C -1,1 C 95 % 1012,9 hPa 0,0 l/m 0 min 0 min 0 W/m 22,5 km/h (4 Bft) 97,87 %
06.04.2021 00:54 0,7 C 0,6 C -1,1 C 95 % 1013,0 hPa 0,0 l/m 0 min 2 min 0 W/m 19,3 km/h (3 Bft) 100,00 %
06.04.2021 00:56 0,8 C 0,6 C -1,1 C 95 % 1013,0 hPa 0,0 l/m 0 min 0 min 0 W/m 16,1 km/h (3 Bft) 100,00 %
06.04.2021 00:58 0,8 C 0,6 C -1,1 C 95 % 1013,2 hPa 0,0 l/m 0 min 2 min 0 W/m 19,3 km/h (3 Bft) 100,00 %
06.04.2021 01:00 0,8 C 0,0 C -1,6 C 95 % 1012,9 hPa 0,0 l/m 0 min 2 min 0 W/m 16,1 km/h (3 Bft) 100,00 %
06.04.2021 01:02 0,8 C 0,0 C -1,6 C 95 % 1013,0 hPa 0,0 l/m 0 min 0 min 0 W/m 12,9 km/h (3 Bft) 97,87 %
06.04.2021 01:04 0,8 C 0,0 C -1,6 C 95 % 1013,0 hPa 0,0 l/m 0 min 0 min 0 W/m 19,3 km/h (3 Bft) 97,87 %
06.04.2021 01:06 0,7 C 0,0 C -1,1 C 95 % 1013,0 hPa 0,0 l/m 0 min 2 min 0 W/m 9,7 km/h (2 Bft) 97,87 %
06.04.2021 01:08 0,8 C 0,0 C -1,6 C 95 % 1013,0 hPa 0,0 l/m 0 min 2 min 0 W/m 9,7 km/h (2 Bft) 100,00 %
06.04.2021 01:10 0,8 C 0,0 C -1,1 C 95 % 1013,0 hPa 0,0 l/m 0 min 0 min 0 W/m 16,1 km/h (3 Bft) 100,00 %
06.04.2021 01:12 0,8 C 0,0 C -1,1 C 95 % 1013,1 hPa 0,0 l/m 0 min 2 min 0 W/m 12,9 km/h (3 Bft) 97,83 %
06.04.2021 01:14 0,8 C 0,6 C -1,1 C 95 % 1013,0 hPa 0,0 l/m 0 min 2 min 0 W/m 22,5 km/h (4 Bft) 100,00 %
06.04.2021 01:16 0,8 C 0,6 C -1,1 C 95 % 1012,9 hPa 0,0 l/m 0 min 2 min 0 W/m 19,3 km/h (3 Bft) 100,00 %
06.04.2021 01:18 0,8 C 0,6 C -1,1 C 95 % 1013,0 hPa 0,0 l/m 0 min 2 min 0 W/m 22,5 km/h (4 Bft) 97,87 %
06.04.2021 01:20 0,8 C 0,6 C -1,1 C 95 % 1012,9 hPa 0,0 l/m 0 min 2 min 0 W/m 16,1 km/h (3 Bft) 97,87 %
06.04.2021 01:22 0,8 C 0,6 C -1,1 C 95 % 1012,9 hPa 0,0 l/m 0 min 2 min 0 W/m 12,9 km/h (3 Bft) 97,83 %
06.04.2021 01:24 0,9 C 0,6 C -1,1 C 95 % 1012,9 hPa 0,0 l/m 0 min 0 min 0 W/m 9,7 km/h (2 Bft) 95,74 %
06.04.2021 01:26 0,9 C 0,6 C -1,1 C 95 % 1012,8 hPa 0,0 l/m 0 min 2 min 0 W/m 16,1 km/h (3 Bft) 97,87 %
06.04.2021 01:28 0,9 C 0,6 C -1,1 C 95 % 1012,9 hPa 0,0 l/m 0 min 2 min 0 W/m 25,7 km/h (4 Bft) 97,87 %
06.04.2021 01:30 0,9 C 0,6 C -1,1 C 95 % 1012,9 hPa 0,0 l/m 0 min 2 min 0 W/m 16,1 km/h (3 Bft) 97,87 %
06.04.2021 01:32 1,0 C 0,6 C -1,1 C 95 % 1012,8 hPa 0,0 l/m 0 min 0 min 0 W/m 19,3 km/h (3 Bft) 97,92 %
06.04.2021 01:34 1,0 C 0,6 C -1,1 C 95 % 1012,8 hPa 0,0 l/m 0 min 0 min 0 W/m 16,1 km/h (3 Bft) 97,83 %
06.04.2021 01:36 1,0 C 0,6 C -1,1 C 95 % 1012,8 hPa 0,0 l/m 0 min 0 min 0 W/m 16,1 km/h (3 Bft) 97,87 %
06.04.2021 01:38 1,0 C 0,6 C -1,1 C 95 % 1012,8 hPa 0,0 l/m 0 min 0 min 0 W/m 19,3 km/h (3 Bft) 97,92 %
06.04.2021 01:40 1,0 C 0,6 C -1,1 C 95 % 1012,7 hPa 0,0 l/m 0 min 2 min 0 W/m 12,9 km/h (3 Bft) 95,74 %
06.04.2021 01:42 1,0 C 0,6 C -1,1 C 95 % 1012,8 hPa 0,0 l/m 0 min 0 min 0 W/m 16,1 km/h (3 Bft) 97,87 %
06.04.2021 01:44 1,0 C 0,6 C -1,1 C 95 % 1012,7 hPa 0,0 l/m 0 min 0 min 0 W/m 22,5 km/h (4 Bft) 97,87 %
06.04.2021 01:46 1,0 C 0,6 C -1,1 C 95 % 1012,7 hPa 0,0 l/m 0 min 0 min 0 W/m 16,1 km/h (3 Bft) 97,83 %
06.04.2021 01:48 1,0 C 0,6 C -1,1 C 95 % 1012,7 hPa 0,0 l/m 0 min 0 min 0 W/m 12,9 km/h (3 Bft) 100,00 %
06.04.2021 01:50 1,0 C 0,6 C -1,1 C 95 % 1012,7 hPa 0,0 l/m 0 min 0 min 0 W/m 16,1 km/h (3 Bft) 93,62 %
06.04.2021 01:52 1,0 C 0,6 C -1,1 C 95 % 1012,6 hPa 0,0 l/m 0 min 0 min 0 W/m 29,0 km/h (5 Bft) 97,87 %
06.04.2021 01:54 1,1 C 0,6 C -1,1 C 95 % 1012,6 hPa 0,0 l/m 0 min 0 min 0 W/m 25,7 km/h (4 Bft) 97,87 %
06.04.2021 01:56 1,1 C 0,6 C -1,1 C 95 % 1012,7 hPa 0,0 l/m 0 min 0 min 0 W/m 22,5 km/h (4 Bft) 95,65 %
06.04.2021 01:58 1,1 C 0,6 C -1,1 C 95 % 1012,6 hPa 0,0 l/m 0 min 0 min 0 W/m 22,5 km/h (4 Bft) 97,87 %
06.04.2021 02:00 1,2 C 0,6 C -0,5 C 95 % 1012,6 hPa 0,0 l/m 0 min 0 min 0 W/m 19,3 km/h (3 Bft) 100,00 %
06.04.2021 02:02 1,2 C 0,6 C -0,5 C 95 % 1012,8 hPa 0,0 l/m 0 min 0 min 0 W/m 9,7 km/h (2 Bft) 97,96 %
06.04.2021 02:04 1,2 C 0,6 C -0,5 C 95 % 1012,7 hPa 0,0 l/m 0 min 0 min 0 W/m 16,1 km/h (3 Bft) 70,21 %
06.04.2021 02:06 1,2 C 0,6 C -0,5 C 95 % 1012,7 hPa 0,0 l/m 0 min 0 min 0 W/m 19,3 km/h (3 Bft) 82,93 %
06.04.2021 02:08 1,3 C 0,6 C -0,5 C 95 % 1012,8 hPa 0,0 l/m 0 min 0 min 0 W/m 19,3 km/h (3 Bft) 97,87 %
06.04.2021 02:10 1,3 C 0,6 C -0,5 C 95 % 1012,9 hPa 0,0 l/m 0 min 0 min 0 W/m 22,5 km/h (4 Bft) 97,87 %
06.04.2021 02:12 1,3 C 0,6 C -0,5 C 95 % 1012,8 hPa 0,0 l/m 0 min 0 min 0 W/m 19,3 km/h (3 Bft) 97,87 %
06.04.2021 02:14 1,3 C 0,6 C -0,5 C 95 % 1012,8 hPa 0,0 l/m 0 min 0 min 0 W/m 19,3 km/h (3 Bft) 97,87 %
06.04.2021 02:16 1,3 C 1,1 C -0,5 C 95 % 1012,9 hPa 0,0 l/m 0 min 0 min 0 W/m 22,5 km/h (4 Bft) 97,83 %
06.04.2021 02:18 1,3 C 1,1 C -0,5 C 95 % 1012,9 hPa 0,0 l/m 0 min 0 min 0 W/m 22,5 km/h (4 Bft) 95,74 %
06.04.2021 02:20 1,4 C 1,1 C -0,5 C 95 % 1012,9 hPa 0,0 l/m 0 min 0 min 0 W/m 32,2 km/h (5 Bft) 97,87 %
06.04.2021 02:22 1,4 C 1,1 C -0,5 C 95 % 1013,0 hPa 0,0 l/m 0 min 0 min 0 W/m 22,5 km/h (4 Bft) 97,87 %
06.04.2021 02:24 1,4 C 1,1 C -0,5 C 95 % 1013,0 hPa 0,0 l/m 0 min 0 min 0 W/m 19,3 km/h (3 Bft) 95,74 %
06.04.2021 02:26 1,4 C 1,1 C -0,5 C 95 % 1013,2 hPa 0,0 l/m 0 min 0 min 0 W/m 22,5 km/h (4 Bft) 97,87 %
06.04.2021 02:28 1,4 C 1,1 C -0,5 C 95 % 1013,1 hPa 0,0 l/m 0 min 0 min 0 W/m 22,5 km/h (4 Bft) 97,83 %
06.04.2021 02:30 1,4 C 1,1 C -0,5 C 95 % 1013,1 hPa 0,0 l/m 0 min 0 min 0 W/m 16,1 km/h (3 Bft) 95,74 %
06.04.2021 02:32 1,4 C 1,1 C -0,5 C 95 % 1013,1 hPa 0,0 l/m 0 min 0 min 0 W/m 16,1 km/h (3 Bft) 97,87 %
06.04.2021 02:34 1,4 C 1,1 C -0,5 C 95 % 1013,0 hPa 0,0 l/m 0 min 0 min 0 W/m 16,1 km/h (3 Bft) 97,87 %
06.04.2021 02:36 1,4 C 1,1 C -0,5 C 95 % 1013,0 hPa 0,0 l/m 0 min 0 min 0 W/m 16,1 km/h (3 Bft) 95,74 %
06.04.2021 02:38 1,4 C 0,6 C -0,5 C 95 % 1013,2 hPa 0,0 l/m 0 min 0 min 0 W/m 19,3 km/h (3 Bft) 97,87 %
06.04.2021 02:40 1,4 C 0,6 C -0,5 C 95 % 1013,2 hPa 0,0 l/m 0 min 0 min 0 W/m 19,3 km/h (3 Bft) 97,83 %
06.04.2021 02:42 1,4 C 0,6 C -0,5 C 95 % 1013,1 hPa 0,0 l/m 0 min 0 min 0 W/m 16,1 km/h (3 Bft) 97,87 %
06.04.2021 02:44 1,3 C 0,6 C -0,5 C 95 % 1013,1 hPa 0,0 l/m 0 min 0 min 0 W/m 19,3 km/h (3 Bft) 97,87 %
06.04.2021 02:46 1,3 C 0,6 C -0,5 C 95 % 1013,1 hPa 0,0 l/m 0 min 0 min 0 W/m 16,1 km/h (3 Bft) 97,87 %
06.04.2021 02:48 1,3 C 0,6 C -0,5 C 95 % 1013,2 hPa 0,0 l/m 0 min 0 min 0 W/m 22,5 km/h (4 Bft) 95,74 %
06.04.2021 02:50 1,3 C 0,6 C -0,5 C 95 % 1013,1 hPa 0,0 l/m 0 min 0 min 0 W/m 16,1 km/h (3 Bft) 95,74 %
06.04.2021 02:52 1,3 C 0,6 C -0,5 C 95 % 1013,1 hPa 0,0 l/m 0 min 0 min 0 W/m 12,9 km/h (3 Bft) 95,65 %
06.04.2021 02:54 1,3 C 0,6 C -0,5 C 95 % 1013,0 hPa 0,0 l/m 0 min 0 min 0 W/m 16,1 km/h (3 Bft) 95,74 %
06.04.2021 02:56 1,3 C 0,6 C -0,5 C 95 % 1013,1 hPa 0,0 l/m 0 min 0 min 0 W/m 9,7 km/h (2 Bft) 97,14 %
06.04.2021 02:58 1,3 C 0,6 C -0,5 C 95 % 1013,1 hPa 0,0 l/m 0 min 0 min 0 W/m 16,1 km/h (3 Bft) 93,62 %
06.04.2021 03:00 1,3 C 0,6 C -0,5 C 95 % 1013,1 hPa 0,0 l/m 0 min 0 min 0 W/m 16,1 km/h (3 Bft) 95,74 %
06.04.2021 03:02 1,3 C 0,6 C -0,5 C 95 % 1013,1 hPa 0,0 l/m 0 min 0 min 0 W/m 16,1 km/h (3 Bft) 94,34 %
06.04.2021 03:04 1,3 C 0,6 C -0,5 C 95 % 1013,1 hPa 0,0 l/m 0 min 0 min 0 W/m 19,3 km/h (3 Bft) 97,87 %
06.04.2021 03:06 1,3 C 0,6 C -0,5 C 95 % 1013,1 hPa 0,0 l/m 0 min 0 min 0 W/m 12,9 km/h (3 Bft) 100,00 %
06.04.2021 03:08 1,3 C 0,6 C -0,5 C 95 % 1013,1 hPa 0,0 l/m 0 min 0 min 0 W/m 12,9 km/h (3 Bft) 97,87 %
06.04.2021 03:10 1,3 C 0,6 C -0,5 C 95 % 1013,2 hPa 0,0 l/m 0 min 0 min 0 W/m 12,9 km/h (3 Bft) 97,87 %
06.04.2021 03:12 1,3 C 0,6 C -0,5 C 95 % 1013,1 hPa 0,0 l/m 0 min 0 min 0 W/m 12,9 km/h (3 Bft) 95,74 %
06.04.2021 03:14 1,3 C 0,6 C -0,5 C 95 % 1013,1 hPa 0,0 l/m 0 min 0 min 0 W/m 16,1 km/h (3 Bft) 97,87 %
06.04.2021 03:16 1,3 C 0,6 C -0,5 C 95 % 1013,1 hPa 0,0 l/m 0 min 0 min 0 W/m 16,1 km/h (3 Bft) 97,87 %
06.04.2021 03:18 1,3 C 0,6 C -0,5 C 95 % 1013,2 hPa 0,0 l/m 0 min 0 min 0 W/m 19,3 km/h (3 Bft) 97,83 %
06.04.2021 03:20 1,3 C 0,6 C -0,5 C 95 % 1013,2 hPa 0,0 l/m 0 min 0 min 0 W/m 16,1 km/h (3 Bft) 97,87 %
06.04.2021 03:22 1,3 C 0,6 C -0,5 C 95 % 1013,2 hPa 0,0 l/m 0 min 2 min 0 W/m 19,3 km/h (3 Bft) 97,87 %
06.04.2021 03:24 1,3 C 0,6 C -0,5 C 95 % 1013,2 hPa 0,0 l/m 0 min 0 min 0 W/m 16,1 km/h (3 Bft) 97,87 %
06.04.2021 03:26 1,3 C 0,6 C -0,5 C 95 % 1013,3 hPa 0,0 l/m 0 min 0 min 0 W/m 19,3 km/h (3 Bft) 97,87 %
06.04.2021 03:28 1,3 C 0,6 C -0,5 C 95 % 1013,2 hPa 0,0 l/m 0 min 2 min 0 W/m 19,3 km/h (3 Bft) 97,87 %
06.04.2021 03:30 1,3 C 0,6 C -0,5 C 95 % 1013,3 hPa 0,0 l/m 0 min 0 min 0 W/m 19,3 km/h (3 Bft) 95,65 %
06.04.2021 03:32 1,3 C 1,1 C -0,5 C 95 % 1013,3 hPa 0,0 l/m 0 min 0 min 0 W/m 16,1 km/h (3 Bft) 97,87 %
06.04.2021 03:34 1,3 C 0,6 C -0,5 C 95 % 1013,3 hPa 0,0 l/m 0 min 0 min 0 W/m 16,1 km/h (3 Bft) 97,87 %
06.04.2021 03:36 1,3 C 0,6 C -0,5 C 95 % 1013,3 hPa 0,0 l/m 0 min 2 min 0 W/m 16,1 km/h (3 Bft) 97,87 %
06.04.2021 03:38 1,3 C 0,6 C -0,5 C 95 % 1013,4 hPa 0,0 l/m 0 min 2 min 0 W/m 12,9 km/h (3 Bft) 97,87 %
06.04.2021 03:40 1,3 C 0,6 C -0,5 C 95 % 1013,4 hPa 0,0 l/m 0 min 2 min 0 W/m 12,9 km/h (3 Bft) 59,57 %
06.04.2021 03:42 1,3 C 0,6 C -0,5 C 95 % 1013,4 hPa 0,0 l/m 0 min 2 min 0 W/m 12,9 km/h (3 Bft) 92,50 %
06.04.2021 03:44 1,1 C 0,6 C -1,1 C 95 % 1013,4 hPa 0,0 l/m 0 min 2 min 0 W/m 12,9 km/h (3 Bft) 95,74 %
06.04.2021 03:46 1,1 C 0,6 C -1,1 C 95 % 1013,2 hPa 0,0 l/m 0 min 2 min 0 W/m 16,1 km/h (3 Bft) 95,74 %
06.04.2021 03:48 1,0 C 0,6 C -1,1 C 95 % 1013,3 hPa 0,0 l/m 0 min 2 min 0 W/m 12,9 km/h (3 Bft) 95,74 %
06.04.2021 03:50 1,0 C 0,6 C -1,1 C 95 % 1013,3 hPa 0,0 l/m 0 min 2 min 0 W/m 22,5 km/h (4 Bft) 95,74 %
06.04.2021 03:52 1,0 C 0,6 C -1,1 C 95 % 1013,3 hPa 0,0 l/m 0 min 2 min 0 W/m 16,1 km/h (3 Bft) 95,74 %
06.04.2021 03:54 1,0 C 0,6 C -1,1 C 95 % 1013,3 hPa 0,0 l/m 0 min 2 min 0 W/m 12,9 km/h (3 Bft) 95,65 %
06.04.2021 03:56 1,0 C 0,6 C -1,1 C 95 % 1013,4 hPa 0,0 l/m 0 min 2 min 0 W/m 16,1 km/h (3 Bft) 93,62 %
06.04.2021 03:58 1,0 C 0,6 C -1,1 C 95 % 1013,4 hPa 0,0 l/m 0 min 2 min 0 W/m 9,7 km/h (2 Bft) 95,74 %
06.04.2021 04:00 0,9 C 0,6 C -1,1 C 95 % 1013,3 hPa 0,0 l/m 0 min 2 min 0 W/m 12,9 km/h (3 Bft) 95,74 %
06.04.2021 04:02 0,9 C 0,6 C -1,1 C 95 % 1013,3 hPa 0,0 l/m 0 min 0 min 0 W/m 12,9 km/h (3 Bft) 100,00 %
06.04.2021 04:04 0,9 C 0,6 C -1,1 C 95 % 1013,4 hPa 0,0 l/m 0 min 0 min 0 W/m 12,9 km/h (3 Bft) 95,65 %
06.04.2021 04:06 1,0 C 0,6 C -0,5 C 95 % 1013,4 hPa 0,0 l/m 0 min 0 min 0 W/m 12,9 km/h (3 Bft) 93,62 %
06.04.2021 04:08 1,0 C 0,6 C -0,5 C 95 % 1013,4 hPa 0,0 l/m 0 min 2 min 0 W/m 16,1 km/h (3 Bft) 96,23 %
06.04.2021 04:10 1,0 C 0,6 C -0,5 C 95 % 1013,5 hPa 0,2 l/m 0 min 2 min 0 W/m 19,3 km/h (3 Bft) 95,74 %
06.04.2021 04:12 1,0 C 0,6 C -0,5 C 95 % 1013,5 hPa 0,0 l/m 0 min 0 min 0 W/m 19,3 km/h (3 Bft) 95,74 %
06.04.2021 04:14 1,0 C 0,6 C -0,5 C 95 % 1013,5 hPa 0,0 l/m 0 min 2 min 0 W/m 19,3 km/h (3 Bft) 95,74 %
06.04.2021 04:16 1,0 C 0,6 C -0,5 C 95 % 1013,6 hPa 0,0 l/m 0 min 2 min 0 W/m 19,3 km/h (3 Bft) 95,74 %
06.04.2021 04:18 1,0 C 0,6 C -0,5 C 95 % 1013,6 hPa 0,0 l/m 0 min 2 min 0 W/m 12,9 km/h (3 Bft) 95,65 %
06.04.2021 04:20 1,1 C 0,6 C -0,5 C 95 % 1013,6 hPa 0,0 l/m 0 min 2 min 0 W/m 16,1 km/h (3 Bft) 95,74 %
06.04.2021 04:22 1,1 C 0,6 C -0,5 C 95 % 1013,5 hPa 0,0 l/m 0 min 2 min 0 W/m 12,9 km/h (3 Bft) 95,74 %
06.04.2021 04:24 1,1 C 0,6 C -0,5 C 95 % 1013,6 hPa 0,0 l/m 0 min 2 min 0 W/m 12,9 km/h (3 Bft) 95,74 %
06.04.2021 04:26 1,0 C 0,6 C -0,5 C 95 % 1013,6 hPa 0,0 l/m 0 min 2 min 0 W/m 16,1 km/h (3 Bft) 95,74 %
06.04.2021 04:28 1,0 C 0,6 C -0,5 C 95 % 1013,6 hPa 0,2 l/m 0 min 2 min 0 W/m 12,9 km/h (3 Bft) 95,74 %
06.04.2021 04:30 1,0 C 0,6 C -0,5 C 95 % 1013,3 hPa 0,0 l/m 0 min 0 min 0 W/m 16,1 km/h (3 Bft) 97,83 %
06.04.2021 04:32 1,0 C 0,6 C -0,5 C 95 % 1013,3 hPa 0,0 l/m 0 min 0 min 0 W/m 12,9 km/h (3 Bft) 97,87 %
06.04.2021 04:34 1,0 C 0,6 C -0,5 C 95 % 1013,3 hPa 0,0 l/m 0 min 0 min 0 W/m 16,1 km/h (3 Bft) 97,87 %
06.04.2021 04:36 1,0 C 0,6 C -0,5 C 95 % 1013,2 hPa 0,0 l/m 0 min 0 min 0 W/m 12,9 km/h (3 Bft) 97,87 %
06.04.2021 04:38 0,9 C 0,6 C -0,5 C 95 % 1013,3 hPa 0,0 l/m 0 min 2 min 0 W/m 12,9 km/h (3 Bft) 95,74 %
06.04.2021 04:40 0,9 C 0,6 C -0,5 C 95 % 1013,3 hPa 0,0 l/m 0 min 2 min 0 W/m 16,1 km/h (3 Bft) 97,87 %
06.04.2021 04:42 0,9 C 0,6 C -1,1 C 95 % 1013,4 hPa 0,0 l/m 0 min 0 min 0 W/m 12,9 km/h (3 Bft) 97,87 %
06.04.2021 04:44 0,9 C 0,6 C -1,1 C 95 % 1013,4 hPa 0,0 l/m 0 min 2 min 0 W/m 6,4 km/h (2 Bft) 97,83 %
06.04.2021 04:46 0,9 C 0,6 C -1,1 C 95 % 1013,4 hPa 0,0 l/m 0 min 0 min 0 W/m 6,4 km/h (2 Bft) 95,74 %
06.04.2021 04:48 0,9 C 0,6 C -1,1 C 95 % 1013,3 hPa 0,0 l/m 0 min 2 min 0 W/m 6,4 km/h (2 Bft) 97,87 %
06.04.2021 04:50 0,9 C 0,6 C -1,1 C 95 % 1013,4 hPa 0,0 l/m 0 min 0 min 0 W/m 22,5 km/h (4 Bft) 100,00 %
06.04.2021 04:52 0,8 C 0,0 C -1,1 C 95 % 1013,4 hPa 0,0 l/m 0 min 0 min 0 W/m 6,4 km/h (2 Bft) 100,00 %
06.04.2021 04:54 0,8 C 0,0 C -1,1 C 95 % 1013,4 hPa 0,0 l/m 0 min 0 min 0 W/m 12,9 km/h (3 Bft) 100,00 %
06.04.2021 04:56 0,8 C 0,0 C -1,1 C 95 % 1013,3 hPa 0,0 l/m 0 min 0 min 0 W/m 12,9 km/h (3 Bft) 100,00 %
06.04.2021 04:58 0,8 C 0,0 C -1,1 C 95 % 1013,2 hPa 0,0 l/m 0 min 2 min 0 W/m 12,9 km/h (3 Bft) 100,00 %
06.04.2021 05:00 0,8 C 0,0 C -1,1 C 95 % 1013,3 hPa 0,0 l/m 0 min 0 min 0 W/m 12,9 km/h (3 Bft) 100,00 %
06.04.2021 05:02 0,8 C 0,0 C -1,1 C 95 % 1013,3 hPa 0,0 l/m 0 min 0 min 0 W/m 16,1 km/h (3 Bft) 97,87 %
06.04.2021 05:04 0,8 C 0,0 C -1,1 C 95 % 1013,3 hPa 0,0 l/m 0 min 0 min 0 W/m 16,1 km/h (3 Bft) 97,87 %
06.04.2021 05:06 0,8 C 0,0 C -1,1 C 95 % 1013,3 hPa 0,0 l/m 0 min 0 min 0 W/m 9,7 km/h (2 Bft) 97,83 %
06.04.2021 05:08 0,8 C 0,0 C -1,1 C 95 % 1013,3 hPa 0,0 l/m 0 min 0 min 0 W/m 12,9 km/h (3 Bft) 100,00 %
06.04.2021 05:10 0,8 C 0,0 C -1,1 C 95 % 1013,3 hPa 0,0 l/m 0 min 0 min 0 W/m 12,9 km/h (3 Bft) 97,87 %
06.04.2021 05:12 0,7 C 0,0 C -1,1 C 95 % 1013,3 hPa 0,0 l/m 0 min 0 min 0 W/m 12,9 km/h (3 Bft) 100,00 %
06.04.2021 05:14 0,7 C 0,0 C -1,1 C 95 % 1013,2 hPa 0,0 l/m 0 min 0 min 0 W/m 9,7 km/h (2 Bft) 97,87 %
06.04.2021 05:16 0,7 C 0,0 C -1,1 C 95 % 1013,2 hPa 0,0 l/m 0 min 0 min 0 W/m 16,1 km/h (3 Bft) 100,00 %
06.04.2021 05:18 0,7 C 0,0 C -1,1 C 95 % 1013,3 hPa 0,0 l/m 0 min 0 min 0 W/m 9,7 km/h (2 Bft) 100,00 %
06.04.2021 05:20 0,7 C 0,0 C -1,1 C 95 % 1013,3 hPa 0,0 l/m 0 min 0 min 0 W/m 12,9 km/h (3 Bft) 100,00 %
06.04.2021 05:22 0,7 C 0,0 C -1,1 C 95 % 1013,2 hPa 0,0 l/m 0 min 0 min 0 W/m 9,7 km/h (2 Bft) 100,00 %
06.04.2021 05:24 0,7 C 0,0 C -1,1 C 95 % 1013,3 hPa 0,0 l/m 0 min 0 min 0 W/m 9,7 km/h (2 Bft) 97,87 %
06.04.2021 05:26 0,7 C 0,0 C -1,1 C 95 % 1013,2 hPa 0,0 l/m 0 min 0 min 0 W/m 16,1 km/h (3 Bft) 95,74 %
06.04.2021 05:28 0,7 C 0,0 C -1,1 C 95 % 1013,2 hPa 0,0 l/m 0 min 0 min 0 W/m 6,4 km/h (2 Bft) 97,87 %
06.04.2021 05:30 0,6 C 0,0 C -1,1 C 95 % 1013,2 hPa 0,0 l/m 0 min 0 min 0 W/m 12,9 km/h (3 Bft) 93,48 %
06.04.2021 05:32 0,7 C 0,0 C -1,1 C 95 % 1013,2 hPa 0,0 l/m 0 min 0 min 0 W/m 22,5 km/h (4 Bft) 97,87 %
06.04.2021 05:34 0,7 C 0,0 C -1,1 C 95 % 1013,2 hPa 0,0 l/m 0 min 0 min 0 W/m 16,1 km/h (3 Bft) 97,87 %
06.04.2021 05:36 0,7 C 0,0 C -1,1 C 95 % 1013,2 hPa 0,0 l/m 0 min 0 min 0 W/m 9,7 km/h (2 Bft) 97,87 %
06.04.2021 05:38 0,6 C 0,0 C -1,1 C 95 % 1013,1 hPa 0,0 l/m 0 min 0 min 0 W/m 16,1 km/h (3 Bft) 97,87 %
06.04.2021 05:40 0,6 C 0,0 C -1,1 C 95 % 1013,1 hPa 0,0 l/m 0 min 0 min 0 W/m 12,9 km/h (3 Bft) 97,87 %
06.04.2021 05:42 0,6 C 0,0 C -1,1 C 95 % 1013,2 hPa 0,0 l/m 0 min 0 min 0 W/m 9,7 km/h (2 Bft) 97,83 %
06.04.2021 05:44 0,7 C 0,0 C -1,1 C 95 % 1013,2 hPa 0,0 l/m 0 min 0 min 0 W/m 16,1 km/h (3 Bft) 97,87 %
06.04.2021 05:46 0,7 C 0,0 C -1,1 C 95 % 1013,1 hPa 0,0 l/m 0 min 0 min 0 W/m 12,9 km/h (3 Bft) 95,83 %
06.04.2021 05:48 0,7 C 0,0 C -1,1 C 95 % 1013,1 hPa 0,0 l/m 0 min 0 min 0 W/m 19,3 km/h (3 Bft) 95,74 %
06.04.2021 05:50 0,7 C 0,0 C -1,1 C 95 % 1013,1 hPa 0,0 l/m 0 min 0 min 0 W/m 12,9 km/h (3 Bft) 95,74 %
06.04.2021 05:52 0,7 C 0,0 C -1,1 C 95 % 1013,1 hPa 0,0 l/m 0 min 0 min 0 W/m 9,7 km/h (2 Bft) 97,87 %
06.04.2021 05:54 0,7 C 0,0 C -1,1 C 95 % 1013,1 hPa 0,0 l/m 0 min 0 min 0 W/m 6,4 km/h (2 Bft) 97,83 %
06.04.2021 05:56 0,7 C 0,0 C -1,1 C 95 % 1013,1 hPa 0,0 l/m 0 min 0 min 0 W/m 9,7 km/h (2 Bft) 97,87 %
06.04.2021 05:58 0,6 C 0,0 C -1,1 C 95 % 1013,1 hPa 0,0 l/m 0 min 0 min 0 W/m 12,9 km/h (3 Bft) 96,00 %
06.04.2021 06:00 0,6 C 0,0 C -1,1 C 95 % 1013,1 hPa 0,0 l/m 0 min 0 min 0 W/m 12,9 km/h (3 Bft) 97,87 %
06.04.2021 06:02 0,6 C 0,0 C -1,1 C 95 % 1013,2 hPa 0,0 l/m 0 min 0 min 0 W/m 12,9 km/h (3 Bft) 97,87 %
06.04.2021 06:04 0,6 C 0,0 C -1,1 C 95 % 1013,2 hPa 0,0 l/m 0 min 0 min 0 W/m 12,9 km/h (3 Bft) 95,65 %
06.04.2021 06:08 0,6 C 0,0 C -1,1 C 95 % 1013,2 hPa 0,0 l/m 0 min 0 min 0 W/m 12,9 km/h (3 Bft) 96,84 %
06.04.2021 06:10 0,5 C 0,0 C -1,1 C 95 % 1013,2 hPa 0,0 l/m 0 min 0 min 0 W/m 9,7 km/h (2 Bft) 95,74 %
06.04.2021 06:12 0,5 C 0,0 C -1,1 C 95 % 1013,2 hPa 0,0 l/m 0 min 0 min 0 W/m 19,3 km/h (3 Bft) 95,74 %
06.04.2021 06:14 0,5 C 0,0 C -1,1 C 95 % 1013,2 hPa 0,0 l/m 0 min 0 min 0 W/m 12,9 km/h (3 Bft) 95,74 %
06.04.2021 06:16 0,5 C 0,0 C -1,1 C 95 % 1013,2 hPa 0,0 l/m 0 min 0 min 0 W/m 3,2 km/h (1 Bft) 95,65 %
06.04.2021 06:18 0,5 C 0,0 C -1,1 C 95 % 1013,2 hPa 0,0 l/m 0 min 0 min 0 W/m 16,1 km/h (3 Bft) 95,74 %
06.04.2021 06:20 0,5 C 0,0 C -1,1 C 95 % 1013,2 hPa 0,0 l/m 0 min 0 min 0 W/m 12,9 km/h (3 Bft) 95,74 %
06.04.2021 06:22 0,5 C 0,0 C -1,1 C 95 % 1013,2 hPa 0,0 l/m 0 min 0 min 0 W/m 12,9 km/h (3 Bft) 95,74 %
06.04.2021 06:24 0,5 C 0,0 C -1,1 C 95 % 1013,2 hPa 0,0 l/m 0 min 0 min 0 W/m 12,9 km/h (3 Bft) 97,87 %
06.04.2021 06:26 0,5 C 0,0 C -1,1 C 95 % 1013,2 hPa 0,0 l/m 0 min 0 min 0 W/m 16,1 km/h (3 Bft) 95,74 %
06.04.2021 06:28 0,5 C 0,0 C -1,1 C 95 % 1013,2 hPa 0,0 l/m 0 min 0 min 0 W/m 12,9 km/h (3 Bft) 97,83 %
06.04.2021 06:30 0,5 C 0,0 C -1,1 C 95 % 1013,2 hPa 0,0 l/m 0 min 0 min 0 W/m 12,9 km/h (3 Bft) 97,87 %
06.04.2021 06:32 0,5 C 0,0 C -1,1 C 95 % 1013,2 hPa 0,0 l/m 0 min 0 min 0 W/m 9,7 km/h (2 Bft) 97,87 %
06.04.2021 06:34 0,5 C 0,0 C -1,1 C 95 % 1013,3 hPa 0,0 l/m 0 min 0 min 0 W/m 19,3 km/h (3 Bft) 97,87 %
06.04.2021 06:36 0,5 C 0,0 C -1,1 C 95 % 1013,3 hPa 0,0 l/m 0 min 0 min 0 W/m 9,7 km/h (2 Bft) 97,87 %
06.04.2021 06:38 0,5 C 0,0 C -1,1 C 95 % 1013,4 hPa 0,0 l/m 0 min 0 min 0 W/m 12,9 km/h (3 Bft) 97,87 %
06.04.2021 06:40 0,5 C 0,0 C -1,1 C 95 % 1013,4 hPa 0,0 l/m 0 min 0 min 0 W/m 12,9 km/h (3 Bft) 93,48 %
06.04.2021 06:42 0,5 C 0,0 C -1,1 C 95 % 1013,4 hPa 0,0 l/m 0 min 0 min 0 W/m 9,7 km/h (2 Bft) 97,87 %
06.04.2021 06:44 0,5 C 0,0 C -1,1 C 95 % 1013,4 hPa 0,0 l/m 0 min 0 min 0 W/m 16,1 km/h (3 Bft) 97,87 %
06.04.2021 06:46 0,5 C 0,0 C -1,1 C 95 % 1013,4 hPa 0,0 l/m 0 min 0 min 0 W/m 9,7 km/h (2 Bft) 97,87 %
06.04.2021 06:48 0,5 C 0,0 C -1,1 C 95 % 1013,5 hPa 0,0 l/m 0 min 0 min 0 W/m 12,9 km/h (3 Bft) 97,87 %
06.04.2021 06:50 0,5 C 0,0 C -0,5 C 95 % 1013,4 hPa 0,0 l/m 0 min 0 min 0 W/m 12,9 km/h (3 Bft) 100,00 %
06.04.2021 06:52 0,5 C 0,0 C -0,5 C 95 % 1013,5 hPa 0,0 l/m 0 min 0 min 0 W/m 9,7 km/h (2 Bft) 100,00 %
06.04.2021 06:54 0,5 C 0,0 C -0,5 C 95 % 1013,5 hPa 0,0 l/m 0 min 0 min 0 W/m 12,9 km/h (3 Bft) 97,87 %
06.04.2021 06:56 0,5 C 0,0 C -0,5 C 95 % 1013,6 hPa 0,0 l/m 0 min 0 min 0 W/m 9,7 km/h (2 Bft) 100,00 %
06.04.2021 06:58 0,6 C 0,0 C -0,5 C 95 % 1013,5 hPa 0,0 l/m 0 min 0 min 0 W/m 9,7 km/h (2 Bft) 100,00 %
06.04.2021 07:00 0,6 C 0,0 C -0,5 C 95 % 1013,5 hPa 0,0 l/m 0 min 0 min 0 W/m 19,3 km/h (3 Bft) 100,00 %
06.04.2021 07:02 0,6 C 0,0 C -0,5 C 95 % 1013,4 hPa 0,0 l/m 0 min 0 min 0 W/m 6,4 km/h (2 Bft) 100,00 %
06.04.2021 07:04 0,6 C 0,0 C -0,5 C 95 % 1013,4 hPa 0,0 l/m 0 min 0 min 3 W/m 16,1 km/h (3 Bft) 100,00 %
06.04.2021 07:06 0,5 C 0,0 C -1,1 C 95 % 1013,5 hPa 0,0 l/m 0 min 0 min 5 W/m 16,1 km/h (3 Bft) 100,00 %
06.04.2021 07:08 0,5 C 0,0 C -1,1 C 95 % 1013,5 hPa 0,0 l/m 0 min 0 min 5 W/m 6,4 km/h (2 Bft) 100,00 %
06.04.2021 07:10 0,5 C 0,0 C -1,1 C 95 % 1013,5 hPa 0,0 l/m 0 min 0 min 7 W/m 9,7 km/h (2 Bft) 94,29 %
06.04.2021 07:12 0,5 C 0,0 C -1,1 C 95 % 1013,4 hPa 0,0 l/m 0 min 0 min 7 W/m 12,9 km/h (3 Bft) 97,87 %
06.04.2021 07:14 0,5 C 0,0 C -1,1 C 95 % 1013,4 hPa 0,0 l/m 0 min 0 min 7 W/m 12,9 km/h (3 Bft) 100,00 %
06.04.2021 07:16 0,5 C 0,0 C -1,1 C 95 % 1013,5 hPa 0,0 l/m 0 min 0 min 9 W/m 12,9 km/h (3 Bft) 100,00 %
06.04.2021 07:18 0,5 C 0,0 C -1,1 C 95 % 1013,6 hPa 0,0 l/m 0 min 0 min 9 W/m 9,7 km/h (2 Bft) 100,00 %
06.04.2021 07:20 0,5 C 0,0 C -1,1 C 95 % 1013,5 hPa 0,0 l/m 0 min 0 min 11 W/m 12,9 km/h (3 Bft) 100,00 %
06.04.2021 07:22 0,5 C 0,0 C -1,1 C 95 % 1013,4 hPa 0,0 l/m 0 min 0 min 12 W/m 12,9 km/h (3 Bft) 100,00 %
06.04.2021 07:24 0,5 C 0,0 C -1,1 C 95 % 1013,5 hPa 0,0 l/m 0 min 0 min 14 W/m 6,4 km/h (2 Bft) 98,28 %
06.04.2021 07:26 0,5 C 0,0 C -1,1 C 95 % 1013,6 hPa 0,0 l/m 0 min 0 min 18 W/m 16,1 km/h (3 Bft) 100,00 %
06.04.2021 07:28 0,5 C 0,0 C -1,1 C 95 % 1013,5 hPa 0,0 l/m 0 min 0 min 29 W/m 12,9 km/h (3 Bft) 100,00 %
06.04.2021 07:30 0,5 C 0,0 C -1,1 C 95 % 1013,5 hPa 0,0 l/m 2 min 0 min 49 W/m 6,4 km/h (2 Bft) 100,00 %
06.04.2021 07:32 0,5 C 0,0 C -1,1 C 95 % 1013,6 hPa 0,0 l/m 2 min 0 min 81 W/m 6,4 km/h (2 Bft) 97,87 %
06.04.2021 07:34 0,5 C 0,6 C -0,5 C 95 % 1013,6 hPa 0,0 l/m 2 min 0 min 96 W/m 9,7 km/h (2 Bft) 100,00 %
06.04.2021 07:36 0,5 C 0,6 C -0,5 C 95 % 1013,7 hPa 0,0 l/m 2 min 0 min 84 W/m 9,7 km/h (2 Bft) 100,00 %
06.04.2021 07:38 0,5 C 0,6 C -1,1 C 95 % 1013,7 hPa 0,0 l/m 0 min 2 min 31 W/m 9,7 km/h (2 Bft) 100,00 %
06.04.2021 07:40 0,5 C 0,6 C -1,1 C 95 % 1013,7 hPa 0,0 l/m 0 min 2 min 18 W/m 12,9 km/h (3 Bft) 100,00 %
06.04.2021 07:42 0,5 C 0,6 C -1,1 C 95 % 1013,7 hPa 0,0 l/m 0 min 2 min 16 W/m 9,7 km/h (2 Bft) 100,00 %
06.04.2021 07:44 0,6 C 0,0 C -1,1 C 95 % 1013,7 hPa 0,0 l/m 0 min 0 min 19 W/m 6,4 km/h (2 Bft) 100,00 %
06.04.2021 07:46 0,6 C 0,0 C -1,1 C 95 % 1013,7 hPa 0,0 l/m 0 min 0 min 26 W/m 9,7 km/h (2 Bft) 100,00 %
06.04.2021 07:48 0,5 C 0,0 C -1,1 C 95 % 1013,7 hPa 0,0 l/m 0 min 0 min 30 W/m 6,4 km/h (2 Bft) 100,00 %
06.04.2021 07:50 0,5 C 0,0 C -0,5 C 95 % 1013,7 hPa 0,0 l/m 0 min 0 min 32 W/m 6,4 km/h (2 Bft) 100,00 %
06.04.2021 07:52 0,5 C 0,6 C -0,5 C 95 % 1013,7 hPa 0,0 l/m 0 min 0 min 21 W/m 12,9 km/h (3 Bft) 97,87 %
06.04.2021 07:54 0,5 C 0,6 C -0,5 C 95 % 1013,7 hPa 0,0 l/m 0 min 0 min 19 W/m 6,4 km/h (2 Bft) 100,00 %
06.04.2021 07:56 0,5 C 0,6 C -0,5 C 95 % 1013,7 hPa 0,0 l/m 0 min 0 min 24 W/m 9,7 km/h (2 Bft) 95,74 %
06.04.2021 07:58 0,6 C 0,6 C -0,5 C 95 % 1013,7 hPa 0,0 l/m 0 min 0 min 25 W/m 12,9 km/h (3 Bft) 100,00 %
06.04.2021 08:00 0,6 C 0,6 C -0,5 C 95 % 1013,7 hPa 0,0 l/m 0 min 0 min 28 W/m 9,7 km/h (2 Bft) 100,00 %
06.04.2021 08:02 0,6 C 0,6 C -0,5 C 95 % 1013,8 hPa 0,0 l/m 0 min 0 min 39 W/m 6,4 km/h (2 Bft) 98,11 %
06.04.2021 08:04 0,6 C 0,6 C -0,5 C 95 % 1013,8 hPa 0,0 l/m 0 min 0 min 34 W/m 12,9 km/h (3 Bft) 100,00 %
06.04.2021 08:06 0,6 C 0,6 C -0,5 C 95 % 1013,7 hPa 0,0 l/m 0 min 0 min 41 W/m 6,4 km/h (2 Bft) 100,00 %
06.04.2021 08:08 0,6 C 0,6 C -0,5 C 95 % 1013,8 hPa 0,0 l/m 0 min 0 min 43 W/m 12,9 km/h (3 Bft) 100,00 %
06.04.2021 08:10 0,6 C 0,6 C -0,5 C 95 % 1013,8 hPa 0,0 l/m 0 min 0 min 40 W/m 6,4 km/h (2 Bft) 100,00 %
06.04.2021 08:12 0,6 C 0,6 C -0,5 C 95 % 1013,8 hPa 0,0 l/m 0 min 0 min 54 W/m 6,4 km/h (2 Bft) 100,00 %
06.04.2021 08:14 0,6 C 0,6 C -0,5 C 95 % 1013,8 hPa 0,0 l/m 0 min 0 min 76 W/m 16,1 km/h (3 Bft) 100,00 %
06.04.2021 08:16 0,6 C 0,6 C -0,5 C 95 % 1013,8 hPa 0,0 l/m 0 min 0 min 66 W/m 12,9 km/h (3 Bft) 97,83 %
06.04.2021 08:18 0,7 C 0,6 C -0,5 C 95 % 1013,8 hPa 0,0 l/m 0 min 2 min 47 W/m 12,9 km/h (3 Bft) 97,87 %
06.04.2021 08:20 0,7 C 0,6 C -0,5 C 95 % 1013,8 hPa 0,0 l/m 0 min 0 min 54 W/m 12,9 km/h (3 Bft) 100,00 %
06.04.2021 08:22 0,6 C 0,6 C -0,5 C 95 % 1013,7 hPa 0,0 l/m 0 min 0 min 54 W/m 6,4 km/h (2 Bft) 97,92 %
06.04.2021 08:24 0,6 C 0,6 C -0,5 C 95 % 1013,8 hPa 0,0 l/m 0 min 0 min 59 W/m 16,1 km/h (3 Bft) 100,00 %
06.04.2021 08:26 0,7 C 0,6 C -0,5 C 95 % 1013,8 hPa 0,0 l/m 0 min 0 min 79 W/m 16,1 km/h (3 Bft) 97,83 %
06.04.2021 08:28 0,7 C 0,6 C -0,5 C 95 % 1013,9 hPa 0,0 l/m 0 min 0 min 90 W/m 16,1 km/h (3 Bft) 100,00 %
06.04.2021 08:30 0,8 C 0,6 C -0,5 C 95 % 1013,8 hPa 0,0 l/m 0 min 0 min 72 W/m 9,7 km/h (2 Bft) 100,00 %
06.04.2021 08:32 0,8 C 0,6 C -0,5 C 95 % 1013,8 hPa 0,0 l/m 0 min 0 min 65 W/m 12,9 km/h (3 Bft) 100,00 %
06.04.2021 08:34 0,8 C 0,6 C -0,5 C 95 % 1013,8 hPa 0,0 l/m 0 min 2 min 69 W/m 12,9 km/h (3 Bft) 97,87 %
06.04.2021 08:36 0,9 C 0,6 C -0,5 C 95 % 1013,8 hPa 0,0 l/m 0 min 0 min 66 W/m 12,9 km/h (3 Bft) 97,87 %
06.04.2021 08:38 0,9 C 1,1 C 0,0 C 95 % 1013,8 hPa 0,0 l/m 0 min 0 min 93 W/m 12,9 km/h (3 Bft) 97,83 %
06.04.2021 08:40 0,9 C 1,1 C 0,0 C 95 % 1013,8 hPa 0,0 l/m 0 min 0 min 121 W/m 12,9 km/h (3 Bft) 95,74 %
06.04.2021 08:42 1,0 C 1,1 C 0,0 C 95 % 1013,8 hPa 0,0 l/m 0 min 2 min 97 W/m 12,9 km/h (3 Bft) 95,74 %
06.04.2021 08:44 1,0 C 1,1 C 0,0 C 95 % 1013,8 hPa 0,0 l/m 0 min 0 min 110 W/m 6,4 km/h (2 Bft) 93,62 %
06.04.2021 08:46 1,0 C 1,1 C 0,0 C 95 % 1013,8 hPa 0,0 l/m 0 min 0 min 86 W/m 12,9 km/h (3 Bft) 95,74 %
06.04.2021 08:48 1,0 C 1,1 C 0,0 C 95 % 1013,7 hPa 0,0 l/m 0 min 2 min 65 W/m 16,1 km/h (3 Bft) 93,88 %
06.04.2021 08:50 1,0 C 1,1 C 0,0 C 95 % 1013,6 hPa 0,0 l/m 0 min 0 min 55 W/m 12,9 km/h (3 Bft) 95,83 %
06.04.2021 08:52 1,0 C 1,1 C 0,0 C 95 % 1013,6 hPa 0,0 l/m 0 min 0 min 54 W/m 9,7 km/h (2 Bft) 94,29 %
06.04.2021 08:54 1,0 C 1,1 C 0,0 C 95 % 1013,6 hPa 0,0 l/m 0 min 0 min 59 W/m 12,9 km/h (3 Bft) 95,74 %
06.04.2021 08:56 1,0 C 1,1 C 0,0 C 95 % 1013,6 hPa 0,0 l/m 0 min 0 min 75 W/m 9,7 km/h (2 Bft) 93,62 %
06.04.2021 08:58 1,1 C 1,1 C 0,0 C 95 % 1013,7 hPa 0,0 l/m 0 min 2 min 73 W/m 25,7 km/h (4 Bft) 93,62 %
06.04.2021 09:00 1,1 C 1,1 C 0,0 C 95 % 1013,7 hPa 0,0 l/m 0 min 2 min 68 W/m 12,9 km/h (3 Bft) 95,65 %
06.04.2021 09:02 1,1 C 1,1 C 0,0 C 94 % 1013,7 hPa 0,0 l/m 0 min 0 min 73 W/m 9,7 km/h (2 Bft) 93,62 %
06.04.2021 09:04 1,2 C 1,1 C 0,0 C 95 % 1013,7 hPa 0,0 l/m 0 min 0 min 86 W/m 16,1 km/h (3 Bft) 93,62 %
06.04.2021 09:06 1,3 C 1,1 C 0,0 C 94 % 1013,7 hPa 0,0 l/m 2 min 2 min 228 W/m 22,5 km/h (4 Bft) 94,55 %
06.04.2021 09:08 1,3 C 1,7 C 0,0 C 94 % 1013,7 hPa 0,0 l/m 2 min 2 min 365 W/m 12,9 km/h (3 Bft) 95,83 %
06.04.2021 09:10 1,4 C 1,7 C 0,6 C 94 % 1013,7 hPa 0,0 l/m 2 min 0 min 268 W/m 9,7 km/h (2 Bft) 95,74 %
06.04.2021 09:12 1,4 C 1,7 C 0,6 C 94 % 1013,7 hPa 0,2 l/m 2 min 0 min 189 W/m 22,5 km/h (4 Bft) 95,65 %
06.04.2021 09:14 1,5 C 2,2 C 0,6 C 94 % 1013,7 hPa 0,0 l/m 2 min 0 min 360 W/m 9,7 km/h (2 Bft) 97,87 %
06.04.2021 09:16 1,6 C 2,2 C 0,6 C 94 % 1013,7 hPa 0,0 l/m 2 min 0 min 396 W/m 12,9 km/h (3 Bft) 95,74 %
06.04.2021 09:18 1,6 C 2,2 C 0,6 C 94 % 1013,8 hPa 0,0 l/m 2 min 0 min 220 W/m 16,1 km/h (3 Bft) 97,87 %
06.04.2021 09:20 1,7 C 2,2 C 0,6 C 94 % 1013,8 hPa 0,0 l/m 0 min 2 min 128 W/m 22,5 km/h (4 Bft) 97,87 %
06.04.2021 09:22 1,7 C 2,8 C 0,6 C 94 % 1013,8 hPa 0,2 l/m 0 min 2 min 149 W/m 22,5 km/h (4 Bft) 97,87 %
06.04.2021 09:24 1,8 C 2,8 C 0,6 C 93 % 1013,7 hPa 0,0 l/m 0 min 0 min 155 W/m 29,0 km/h (5 Bft) 97,83 %
06.04.2021 09:26 1,8 C 2,8 C 0,6 C 93 % 1013,8 hPa 0,0 l/m 0 min 0 min 181 W/m 22,5 km/h (4 Bft) 97,87 %
06.04.2021 09:28 1,8 C 2,2 C 0,6 C 92 % 1013,8 hPa 0,0 l/m 0 min 0 min 157 W/m 22,5 km/h (4 Bft) 100,00 %
06.04.2021 09:30 1,9 C 2,8 C 0,6 C 92 % 1013,8 hPa 0,0 l/m 2 min 0 min 227 W/m 19,3 km/h (3 Bft) 100,00 %
06.04.2021 09:32 1,9 C 3,3 C 0,6 C 92 % 1013,8 hPa 0,0 l/m 2 min 0 min 354 W/m 12,9 km/h (3 Bft) 97,92 %
06.04.2021 09:34 2,0 C 2,8 C 0,6 C 92 % 1013,8 hPa 0,0 l/m 0 min 0 min 109 W/m 16,1 km/h (3 Bft) 97,87 %
06.04.2021 09:36 2,0 C 2,8 C 1,1 C 92 % 1013,9 hPa 0,0 l/m 0 min 0 min 112 W/m 16,1 km/h (3 Bft) 97,83 %
06.04.2021 09:38 2,0 C 2,8 C 1,1 C 91 % 1013,8 hPa 0,2 l/m 0 min 0 min 187 W/m 16,1 km/h (3 Bft) 97,87 %
06.04.2021 09:40 2,0 C 3,3 C 1,1 C 91 % 1013,8 hPa 0,0 l/m 2 min 0 min 207 W/m 19,3 km/h (3 Bft) 100,00 %
06.04.2021 09:42 2,0 C 4,4 C 1,7 C 91 % 1013,7 hPa 0,0 l/m 2 min 0 min 375 W/m 12,9 km/h (3 Bft) 97,87 %
06.04.2021 09:44 2,1 C 5,0 C 2,3 C 91 % 1013,8 hPa 0,0 l/m 2 min 0 min 503 W/m 12,9 km/h (3 Bft) 97,87 %
06.04.2021 09:46 2,3 C 5,0 C 2,3 C 91 % 1013,7 hPa 0,0 l/m 2 min 0 min 522 W/m 16,1 km/h (3 Bft) 100,00 %
06.04.2021 09:48 2,4 C 5,0 C 2,8 C 91 % 1013,7 hPa 0,0 l/m 2 min 0 min 540 W/m 16,1 km/h (3 Bft) 97,83 %
06.04.2021 09:50 2,5 C 5,0 C 2,8 C 91 % 1013,7 hPa 0,2 l/m 2 min 0 min 449 W/m 16,1 km/h (3 Bft) 97,87 %
06.04.2021 09:52 2,6 C 4,4 C 2,8 C 91 % 1013,7 hPa 0,0 l/m 2 min 0 min 237 W/m 29,0 km/h (5 Bft) 97,87 %
06.04.2021 09:54 2,7 C 3,9 C 2,3 C 91 % 1013,7 hPa 0,0 l/m 0 min 0 min 195 W/m 16,1 km/h (3 Bft) 97,87 %
06.04.2021 09:56 2,6 C 2,8 C 1,7 C 90 % 1013,6 hPa 0,0 l/m 0 min 0 min 193 W/m 16,1 km/h (3 Bft) 95,74 %
06.04.2021 09:58 2,5 C 2,8 C 1,7 C 89 % 1013,7 hPa 0,0 l/m 0 min 0 min 107 W/m 9,7 km/h (2 Bft) 95,74 %
06.04.2021 10:00 2,5 C 2,8 C 1,1 C 89 % 1013,7 hPa 0,0 l/m 0 min 0 min 163 W/m 16,1 km/h (3 Bft) 95,65 %
06.04.2021 10:02 2,5 C 2,8 C 1,7 C 89 % 1013,8 hPa 0,0 l/m 2 min 0 min 259 W/m 16,1 km/h (3 Bft) 97,87 %
06.04.2021 10:04 2,4 C 2,8 C 1,7 C 89 % 1013,8 hPa 0,0 l/m 0 min 0 min 162 W/m 16,1 km/h (3 Bft) 97,87 %
06.04.2021 10:06 2,4 C 3,3 C 1,7 C 89 % 1013,7 hPa 0,0 l/m 0 min 0 min 185 W/m 16,1 km/h (3 Bft) 95,74 %
06.04.2021 10:08 2,5 C 3,3 C 1,7 C 89 % 1013,8 hPa 0,0 l/m 0 min 0 min 194 W/m 16,1 km/h (3 Bft) 97,92 %
06.04.2021 10:10 2,5 C 3,9 C 1,7 C 89 % 1013,7 hPa 0,2 l/m 0 min 0 min 232 W/m 12,9 km/h (3 Bft) 100,00 %
06.04.2021 10:12 2,6 C 4,4 C 2,8 C 88 % 1013,7 hPa 0,0 l/m 2 min 2 min 428 W/m 22,5 km/h (4 Bft) 97,87 %
06.04.2021 10:14 2,8 C 4,4 C 2,8 C 88 % 1013,7 hPa 0,0 l/m 2 min 0 min 290 W/m 22,5 km/h (4 Bft) 97,87 %
06.04.2021 10:16 2,8 C 4,4 C 2,8 C 88 % 1013,8 hPa 0,0 l/m 2 min 0 min 255 W/m 19,3 km/h (3 Bft) 97,87 %
06.04.2021 10:18 2,9 C 4,4 C 2,8 C 88 % 1013,8 hPa 0,0 l/m 0 min 0 min 236 W/m 19,3 km/h (3 Bft) 97,83 %
06.04.2021 10:20 2,9 C 3,9 C 2,3 C 88 % 1013,8 hPa 0,0 l/m 2 min 0 min 255 W/m 16,1 km/h (3 Bft) 93,62 %
06.04.2021 10:22 2,9 C 3,9 C 2,3 C 87 % 1013,7 hPa 0,0 l/m 0 min 0 min 240 W/m 19,3 km/h (3 Bft) 97,87 %
06.04.2021 10:24 2,9 C 3,3 C 1,7 C 87 % 1013,7 hPa 0,2 l/m 0 min 0 min 153 W/m 12,9 km/h (3 Bft) 97,87 %
06.04.2021 10:26 2,9 C 3,3 C 1,7 C 87 % 1013,7 hPa 0,0 l/m 0 min 0 min 133 W/m 6,4 km/h (2 Bft) 93,62 %
06.04.2021 10:28 2,9 C 2,8 C 1,7 C 87 % 1013,7 hPa 0,0 l/m 0 min 0 min 145 W/m 16,1 km/h (3 Bft) 95,74 %
06.04.2021 10:30 2,8 C 3,9 C 2,3 C 87 % 1013,7 hPa 0,0 l/m 0 min 0 min 204 W/m 16,1 km/h (3 Bft) 97,83 %
06.04.2021 10:32 2,9 C 4,4 C 2,8 C 87 % 1013,7 hPa 0,0 l/m 0 min 0 min 204 W/m 16,1 km/h (3 Bft) 97,87 %
06.04.2021 10:34 2,9 C 3,9 C 2,3 C 87 % 1013,8 hPa 0,0 l/m 0 min 0 min 160 W/m 16,1 km/h (3 Bft) 97,87 %
06.04.2021 10:36 2,9 C 3,3 C 2,3 C 87 % 1013,8 hPa 0,0 l/m 0 min 0 min 146 W/m 16,1 km/h (3 Bft) 95,74 %
06.04.2021 10:38 2,9 C 3,9 C 2,3 C 87 % 1013,8 hPa 0,0 l/m 0 min 0 min 178 W/m 22,5 km/h (4 Bft) 97,87 %
06.04.2021 10:40 2,9 C 4,4 C 2,8 C 87 % 1013,8 hPa 0,0 l/m 0 min 0 min 178 W/m 16,1 km/h (3 Bft) 97,87 %
06.04.2021 10:42 3,0 C 4,4 C 2,8 C 86 % 1013,7 hPa 0,0 l/m 0 min 0 min 178 W/m 22,5 km/h (4 Bft) 95,65 %
06.04.2021 10:44 3,0 C 3,9 C 2,3 C 86 % 1013,8 hPa 0,0 l/m 0 min 0 min 229 W/m 16,1 km/h (3 Bft) 97,87 %
06.04.2021 10:46 3,1 C 3,9 C 2,3 C 86 % 1013,8 hPa 0,0 l/m 2 min 0 min 285 W/m 22,5 km/h (4 Bft) 97,87 %
06.04.2021 10:48 3,1 C 4,4 C 2,8 C 86 % 1013,8 hPa 0,0 l/m 2 min 0 min 327 W/m 25,7 km/h (4 Bft) 97,87 %
06.04.2021 10:50 3,3 C 4,4 C 2,8 C 86 % 1013,8 hPa 0,0 l/m 2 min 0 min 283 W/m 19,3 km/h (3 Bft) 95,74 %
06.04.2021 10:52 3,3 C 4,4 C 2,8 C 85 % 1013,8 hPa 0,0 l/m 0 min 0 min 266 W/m 19,3 km/h (3 Bft) 97,87 %
06.04.2021 10:54 3,3 C 4,4 C 3,4 C 85 % 1013,8 hPa 0,0 l/m 2 min 0 min 343 W/m 16,1 km/h (3 Bft) 97,83 %
06.04.2021 10:56 3,4 C 4,4 C 2,8 C 85 % 1013,7 hPa 0,0 l/m 2 min 0 min 284 W/m 16,1 km/h (3 Bft) 97,87 %
06.04.2021 10:58 3,4 C 4,4 C 2,3 C 85 % 1013,7 hPa 0,0 l/m 0 min 0 min 275 W/m 19,3 km/h (3 Bft) 59,57 %
06.04.2021 11:00 3,4 C 3,9 C 2,3 C 85 % 1013,7 hPa 0,0 l/m 0 min 0 min 199 W/m 16,1 km/h (3 Bft) 93,02 %
06.04.2021 11:02 3,4 C 3,9 C 2,3 C 85 % 1013,7 hPa 0,2 l/m 0 min 0 min 204 W/m 16,1 km/h (3 Bft) 97,87 %
06.04.2021 11:04 3,4 C 3,9 C 2,3 C 85 % 1013,8 hPa 0,0 l/m 0 min 0 min 270 W/m 12,9 km/h (3 Bft) 100,00 %
06.04.2021 11:06 3,4 C 4,4 C 2,3 C 85 % 1013,7 hPa 0,0 l/m 2 min 0 min 289 W/m 12,9 km/h (3 Bft) 97,87 %
06.04.2021 11:08 3,4 C 4,4 C 2,3 C 85 % 1013,8 hPa 0,0 l/m 0 min 0 min 260 W/m 12,9 km/h (3 Bft) 100,00 %
06.04.2021 11:10 3,4 C 4,4 C 2,3 C 84 % 1013,7 hPa 0,0 l/m 0 min 0 min 258 W/m 12,9 km/h (3 Bft) 97,87 %
06.04.2021 11:12 3,5 C 4,4 C 2,3 C 84 % 1013,7 hPa 0,0 l/m 0 min 0 min 281 W/m 19,3 km/h (3 Bft) 100,00 %
06.04.2021 11:14 3,5 C 4,4 C 2,8 C 84 % 1013,7 hPa 0,0 l/m 0 min 0 min 287 W/m 12,9 km/h (3 Bft) 97,87 %
06.04.2021 11:16 3,5 C 4,4 C 2,8 C 84 % 1013,6 hPa 0,0 l/m 0 min 0 min 290 W/m 16,1 km/h (3 Bft) 100,00 %
06.04.2021 11:18 3,5 C 5,0 C 2,8 C 84 % 1013,6 hPa 0,0 l/m 2 min 0 min 379 W/m 19,3 km/h (3 Bft) 97,87 %
06.04.2021 11:20 3,6 C 5,0 C 3,4 C 84 % 1013,6 hPa 0,0 l/m 2 min 0 min 432 W/m 19,3 km/h (3 Bft) 97,87 %
06.04.2021 11:22 3,7 C 5,6 C 3,9 C 84 % 1013,6 hPa 0,0 l/m 2 min 0 min 432 W/m 16,1 km/h (3 Bft) 93,62 %
06.04.2021 11:24 3,8 C 5,0 C 3,4 C 84 % 1013,5 hPa 0,0 l/m 2 min 0 min 429 W/m 16,1 km/h (3 Bft) 97,87 %
06.04.2021 11:26 3,9 C 5,0 C 3,4 C 83 % 1013,6 hPa 0,0 l/m 0 min 0 min 271 W/m 9,7 km/h (2 Bft) 95,74 %
06.04.2021 11:28 3,9 C 4,4 C 2,8 C 83 % 1013,5 hPa 0,0 l/m 0 min 0 min 202 W/m 16,1 km/h (3 Bft) 97,83 %
06.04.2021 11:30 3,9 C 4,4 C 2,8 C 83 % 1013,5 hPa 0,0 l/m 0 min 0 min 177 W/m 12,9 km/h (3 Bft) 97,87 %
06.04.2021 11:32 3,8 C 3,9 C 2,3 C 83 % 1013,5 hPa 0,2 l/m 0 min 0 min 186 W/m 19,3 km/h (3 Bft) 95,74 %
06.04.2021 11:34 3,7 C 3,9 C 2,3 C 82 % 1013,5 hPa 0,0 l/m 0 min 0 min 170 W/m 19,3 km/h (3 Bft) 97,87 %
06.04.2021 11:36 3,5 C 3,3 C 1,7 C 83 % 1013,5 hPa 0,0 l/m 0 min 0 min 116 W/m 16,1 km/h (3 Bft) 97,87 %
06.04.2021 11:38 3,4 C 3,3 C 1,7 C 83 % 1013,5 hPa 0,0 l/m 0 min 0 min 81 W/m 16,1 km/h (3 Bft) 97,87 %
06.04.2021 11:40 3,3 C 2,8 C 1,1 C 83 % 1013,5 hPa 0,0 l/m 0 min 0 min 81 W/m 19,3 km/h (3 Bft) 97,83 %
06.04.2021 11:42 3,1 C 2,8 C 1,1 C 84 % 1013,4 hPa 0,0 l/m 0 min 0 min 86 W/m 12,9 km/h (3 Bft) 95,74 %
06.04.2021 11:44 3,1 C 2,8 C 1,1 C 84 % 1013,4 hPa 0,0 l/m 0 min 0 min 115 W/m 16,1 km/h (3 Bft) 97,87 %
06.04.2021 11:46 3,0 C 3,3 C 1,1 C 85 % 1013,4 hPa 0,0 l/m 0 min 0 min 166 W/m 12,9 km/h (3 Bft) 95,74 %
06.04.2021 11:48 3,1 C 3,9 C 1,7 C 85 % 1013,4 hPa 0,0 l/m 0 min 0 min 167 W/m 9,7 km/h (2 Bft) 97,87 %
06.04.2021 11:50 3,2 C 3,9 C 1,7 C 86 % 1013,3 hPa 0,0 l/m 0 min 0 min 175 W/m 19,3 km/h (3 Bft) 95,74 %
06.04.2021 11:52 3,3 C 3,9 C 1,7 C 85 % 1013,3 hPa 0,0 l/m 0 min 0 min 214 W/m 16,1 km/h (3 Bft) 97,83 %
06.04.2021 11:54 3,3 C 4,4 C 2,8 C 85 % 1013,4 hPa 0,0 l/m 0 min 0 min 232 W/m 12,9 km/h (3 Bft) 97,87 %
06.04.2021 11:56 3,4 C 3,9 C 2,3 C 85 % 1013,3 hPa 0,0 l/m 0 min 0 min 126 W/m 12,9 km/h (3 Bft) 97,87 %
06.04.2021 11:58 3,4 C 3,9 C 2,3 C 84 % 1013,3 hPa 0,0 l/m 0 min 0 min 93 W/m 12,9 km/h (3 Bft) 95,74 %
06.04.2021 12:00 3,4 C 3,3 C 1,7 C 83 % 1013,3 hPa 0,0 l/m 0 min 0 min 88 W/m 12,9 km/h (3 Bft) 97,56 %
06.04.2021 12:02 3,4 C 3,3 C 1,7 C 84 % 1013,3 hPa 0,0 l/m 0 min 0 min 99 W/m 16,1 km/h (3 Bft) 95,83 %
06.04.2021 12:04 3,4 C 3,3 C 1,7 C 84 % 1013,4 hPa 0,0 l/m 0 min 0 min 117 W/m 12,9 km/h (3 Bft) 100,00 %
06.04.2021 12:08 3,3 C 3,3 C 1,7 C 84 % 1013,3 hPa 0,0 l/m 0 min 0 min 111 W/m 22,5 km/h (4 Bft) 97,92 %
06.04.2021 12:10 3,3 C 3,3 C 1,7 C 83 % 1013,3 hPa 0,0 l/m 0 min 0 min 136 W/m 16,1 km/h (3 Bft) 100,00 %
06.04.2021 12:12 3,3 C 3,3 C 1,7 C 83 % 1013,4 hPa 0,0 l/m 0 min 0 min 142 W/m 16,1 km/h (3 Bft) 97,87 %
06.04.2021 12:14 3,3 C 3,3 C 1,7 C 83 % 1013,3 hPa 0,0 l/m 0 min 0 min 151 W/m 22,5 km/h (4 Bft) 97,87 %
06.04.2021 12:16 3,3 C 3,3 C 1,7 C 83 % 1013,3 hPa 0,0 l/m 0 min 0 min 136 W/m 22,5 km/h (4 Bft) 97,87 %
06.04.2021 12:18 3,4 C 3,3 C 1,7 C 83 % 1013,3 hPa 0,0 l/m 0 min 0 min 169 W/m 22,5 km/h (4 Bft) 97,87 %
06.04.2021 12:20 3,4 C 3,9 C 1,7 C 83 % 1013,2 hPa 0,0 l/m 0 min 0 min 212 W/m 16,1 km/h (3 Bft) 97,87 %
06.04.2021 12:22 3,4 C 3,9 C 2,3 C 83 % 1013,2 hPa 0,0 l/m 0 min 0 min 274 W/m 16,1 km/h (3 Bft) 97,83 %
06.04.2021 12:24 3,6 C 4,4 C 3,4 C 83 % 1013,2 hPa 0,0 l/m 0 min 0 min 321 W/m 19,3 km/h (3 Bft) 97,87 %
06.04.2021 12:26 3,7 C 4,4 C 2,8 C 83 % 1013,0 hPa 0,0 l/m 0 min 0 min 193 W/m 12,9 km/h (3 Bft) 97,87 %
06.04.2021 12:28 3,8 C 4,4 C 2,8 C 83 % 1013,0 hPa 0,0 l/m 0 min 0 min 145 W/m 12,9 km/h (3 Bft) 97,87 %
06.04.2021 12:30 3,8 C 4,4 C 2,8 C 83 % 1013,0 hPa 0,0 l/m 0 min 0 min 126 W/m 9,7 km/h (2 Bft) 97,87 %
06.04.2021 12:32 3,8 C 5,0 C 3,4 C 82 % 1013,0 hPa 0,0 l/m 0 min 0 min 124 W/m 9,7 km/h (2 Bft) 97,83 %
06.04.2021 12:34 3,9 C 6,7 C 7,3 C 82 % 1012,9 hPa 0,0 l/m 2 min 0 min 749 W/m 16,1 km/h (3 Bft) 97,87 %
06.04.2021 12:36 4,3 C 7,2 C 8,4 C 82 % 1012,9 hPa 0,0 l/m 2 min 0 min 904 W/m 29,0 km/h (5 Bft) 97,87 %
06.04.2021 12:38 4,5 C 6,1 C 6,7 C 80 % 1012,9 hPa 0,0 l/m 2 min 0 min 701 W/m 19,3 km/h (3 Bft) 97,92 %
06.04.2021 12:40 4,5 C 6,1 C 5,6 C 78 % 1012,8 hPa 0,0 l/m 0 min 0 min 318 W/m 12,9 km/h (3 Bft) 97,87 %
06.04.2021 12:42 4,5 C 5,6 C 5,0 C 78 % 1012,8 hPa 0,0 l/m 2 min 0 min 566 W/m 12,9 km/h (3 Bft) 95,74 %
06.04.2021 12:44 4,5 C 5,0 C 3,9 C 79 % 1012,9 hPa 0,0 l/m 0 min 2 min 131 W/m 16,1 km/h (3 Bft) 97,83 %
06.04.2021 12:46 4,4 C 4,4 C 2,8 C 79 % 1012,9 hPa 0,0 l/m 0 min 0 min 171 W/m 19,3 km/h (3 Bft) 95,74 %
06.04.2021 12:48 4,4 C 4,4 C 2,8 C 80 % 1012,8 hPa 0,0 l/m 0 min 0 min 254 W/m 22,5 km/h (4 Bft) 97,87 %
06.04.2021 12:50 4,4 C 5,0 C 3,4 C 80 % 1012,8 hPa 0,0 l/m 0 min 0 min 307 W/m 19,3 km/h (3 Bft) 97,87 %
06.04.2021 12:52 4,4 C 6,1 C 5,0 C 81 % 1012,8 hPa 0,0 l/m 2 min 0 min 553 W/m 16,1 km/h (3 Bft) 97,87 %
06.04.2021 12:54 4,5 C 6,1 C 5,0 C 81 % 1012,8 hPa 0,0 l/m 2 min 0 min 414 W/m 19,3 km/h (3 Bft) 97,87 %
06.04.2021 12:56 4,5 C 7,2 C 6,7 C 81 % 1012,9 hPa 0,0 l/m 0 min 0 min 301 W/m 16,1 km/h (3 Bft) 97,83 %
06.04.2021 12:58 4,6 C 8,3 C 7,3 C 81 % 1012,8 hPa 0,0 l/m 0 min 0 min 313 W/m 19,3 km/h (3 Bft) 97,87 %
06.04.2021 13:00 4,8 C 8,9 C 7,8 C 81 % 1012,8 hPa 0,0 l/m 2 min 0 min 854 W/m 16,1 km/h (3 Bft) 97,87 %
06.04.2021 13:02 4,9 C 8,9 C 7,3 C 81 % 1012,8 hPa 0,0 l/m 2 min 0 min 881 W/m 19,3 km/h (3 Bft) 97,92 %
06.04.2021 13:04 5,0 C 9,4 C 7,8 C 80 % 1012,7 hPa 0,0 l/m 2 min 0 min 862 W/m 25,7 km/h (4 Bft) 97,87 %
06.04.2021 13:06 5,1 C 8,3 C 6,7 C 80 % 1012,8 hPa 0,0 l/m 2 min 0 min 765 W/m 25,7 km/h (4 Bft) 97,92 %
06.04.2021 13:08 5,0 C 6,7 C 5,0 C 77 % 1012,8 hPa 0,0 l/m 2 min 0 min 747 W/m 29,0 km/h (5 Bft) 97,87 %
06.04.2021 13:10 4,9 C 6,1 C 4,5 C 77 % 1012,8 hPa 0,0 l/m 2 min 0 min 374 W/m 19,3 km/h (3 Bft) 97,14 %
06.04.2021 13:12 4,8 C 5,6 C 3,9 C 76 % 1012,8 hPa 0,0 l/m 0 min 0 min 306 W/m 25,7 km/h (4 Bft) 97,87 %
06.04.2021 13:14 4,6 C 5,0 C 3,4 C 76 % 1012,8 hPa 0,0 l/m 0 min 0 min 264 W/m 16,1 km/h (3 Bft) 97,87 %
06.04.2021 13:16 4,4 C 4,4 C 3,4 C 77 % 1012,9 hPa 0,0 l/m 0 min 0 min 218 W/m 16,1 km/h (3 Bft) 97,87 %
06.04.2021 13:18 4,1 C 3,9 C 2,8 C 78 % 1012,9 hPa 0,0 l/m 0 min 0 min 188 W/m 19,3 km/h (3 Bft) 97,83 %
06.04.2021 13:20 3,8 C 3,3 C 2,3 C 79 % 1012,9 hPa 0,0 l/m 0 min 0 min 180 W/m 19,3 km/h (3 Bft) 95,74 %
06.04.2021 13:22 3,5 C 3,3 C 1,7 C 81 % 1013,0 hPa 0,0 l/m 0 min 0 min 196 W/m 22,5 km/h (4 Bft) 97,87 %
06.04.2021 13:24 3,3 C 2,8 C 1,7 C 82 % 1012,9 hPa 0,0 l/m 0 min 0 min 203 W/m 19,3 km/h (3 Bft) 97,87 %
06.04.2021 13:26 3,0 C 2,8 C 1,1 C 83 % 1012,9 hPa 0,0 l/m 0 min 0 min 204 W/m 16,1 km/h (3 Bft) 97,87 %
06.04.2021 13:28 2,9 C 2,8 C 1,1 C 84 % 1012,9 hPa 0,0 l/m 0 min 0 min 205 W/m 22,5 km/h (4 Bft) 97,87 %
06.04.2021 13:30 2,6 C 2,8 C 1,7 C 85 % 1012,8 hPa 0,0 l/m 0 min 0 min 259 W/m 25,7 km/h (4 Bft) 97,83 %
06.04.2021 13:32 2,5 C 3,9 C 2,8 C 86 % 1012,8 hPa 0,0 l/m 2 min 0 min 380 W/m 22,5 km/h (4 Bft) 97,87 %
06.04.2021 13:34 2,5 C 4,4 C 3,4 C 87 % 1012,9 hPa 0,0 l/m 2 min 0 min 579 W/m 25,7 km/h (4 Bft) 97,87 %
06.04.2021 13:36 2,5 C 5,0 C 4,5 C 87 % 1012,8 hPa 0,0 l/m 2 min 0 min 582 W/m 16,1 km/h (3 Bft) 95,74 %
06.04.2021 13:38 2,7 C 6,7 C 6,7 C 89 % 1012,7 hPa 0,0 l/m 2 min 0 min 582 W/m 19,3 km/h (3 Bft) 98,28 %
06.04.2021 13:40 3,0 C 7,8 C 6,7 C 89 % 1012,7 hPa 0,0 l/m 2 min 0 min 862 W/m 19,3 km/h (3 Bft) 97,22 %
06.04.2021 13:42 3,1 C 7,8 C 6,1 C 89 % 1012,7 hPa 0,0 l/m 2 min 0 min 828 W/m 16,1 km/h (3 Bft) 100,00 %
06.04.2021 13:44 3,3 C 7,8 C 5,0 C 88 % 1012,7 hPa 0,0 l/m 2 min 0 min 843 W/m 19,3 km/h (3 Bft) 100,00 %
06.04.2021 13:46 3,4 C 8,3 C 4,5 C 88 % 1012,7 hPa 0,0 l/m 2 min 0 min 851 W/m 19,3 km/h (3 Bft) 97,87 %
06.04.2021 13:48 3,6 C 8,3 C 3,9 C 88 % 1012,6 hPa 0,0 l/m 2 min 0 min 850 W/m 16,1 km/h (3 Bft) 97,87 %
06.04.2021 13:50 3,8 C 8,9 C 3,9 C 87 % 1012,6 hPa 0,0 l/m 2 min 0 min 851 W/m 16,1 km/h (3 Bft) 97,87 %
06.04.2021 13:52 4,0 C 8,3 C 3,4 C 87 % 1012,7 hPa 0,0 l/m 2 min 0 min 836 W/m 19,3 km/h (3 Bft) 97,87 %
06.04.2021 13:54 4,2 C 9,4 C 3,9 C 87 % 1012,6 hPa 0,0 l/m 2 min 0 min 897 W/m 16,1 km/h (3 Bft) 97,83 %
06.04.2021 13:56 4,4 C 9,4 C 3,4 C 86 % 1012,6 hPa 0,0 l/m 2 min 0 min 916 W/m 16,1 km/h (3 Bft) 93,62 %
06.04.2021 13:58 4,4 C 9,4 C 3,9 C 86 % 1012,6 hPa 0,0 l/m 2 min 0 min 720 W/m 19,3 km/h (3 Bft) 95,74 %
06.04.2021 14:00 4,5 C 8,9 C 3,9 C 85 % 1012,6 hPa 0,0 l/m 2 min 0 min 902 W/m 19,3 km/h (3 Bft) 95,74 %
06.04.2021 14:02 4,5 C 7,8 C 3,9 C 85 % 1012,6 hPa 0,0 l/m 2 min 0 min 539 W/m 19,3 km/h (3 Bft) 93,62 %
06.04.2021 14:04 4,5 C 7,8 C 4,5 C 85 % 1012,6 hPa 0,0 l/m 2 min 0 min 635 W/m 16,1 km/h (3 Bft) 95,65 %
06.04.2021 14:06 4,4 C 7,8 C 4,5 C 85 % 1012,6 hPa 0,0 l/m 2 min 0 min 569 W/m 16,1 km/h (3 Bft) 93,75 %
06.04.2021 14:08 4,4 C 7,2 C 3,9 C 84 % 1012,5 hPa 0,0 l/m 2 min 0 min 991 W/m 29,0 km/h (5 Bft) 93,62 %
06.04.2021 14:10 4,4 C 6,1 C 3,9 C 83 % 1012,5 hPa 0,0 l/m 2 min 0 min 630 W/m 19,3 km/h (3 Bft) 95,74 %
06.04.2021 14:12 4,4 C 5,6 C 3,4 C 83 % 1012,5 hPa 0,0 l/m 0 min 0 min 297 W/m 22,5 km/h (4 Bft) 91,49 %
06.04.2021 14:14 4,3 C 5,0 C 2,8 C 82 % 1012,6 hPa 0,0 l/m 0 min 0 min 161 W/m 25,7 km/h (4 Bft) 95,74 %
06.04.2021 14:16 4,1 C 4,4 C 2,3 C 83 % 1012,7 hPa 0,0 l/m 0 min 0 min 107 W/m 19,3 km/h (3 Bft) 95,65 %
06.04.2021 14:18 3,9 C 3,9 C 2,3 C 83 % 1012,7 hPa 0,0 l/m 0 min 0 min 61 W/m 22,5 km/h (4 Bft) 95,74 %
06.04.2021 14:20 3,8 C 3,3 C 1,7 C 83 % 1012,7 hPa 0,0 l/m 0 min 2 min 45 W/m 22,5 km/h (4 Bft) 95,74 %
06.04.2021 14:22 3,6 C 3,3 C 1,7 C 84 % 1012,7 hPa 0,0 l/m 0 min 2 min 32 W/m 19,3 km/h (3 Bft) 95,74 %
06.04.2021 14:24 3,5 C 2,8 C 1,1 C 84 % 1012,8 hPa 0,0 l/m 0 min 2 min 24 W/m 16,1 km/h (3 Bft) 95,74 %
06.04.2021 14:26 3,2 C 2,2 C 0,6 C 85 % 1012,9 hPa 0,0 l/m 0 min 2 min 19 W/m 29,0 km/h (5 Bft) 95,74 %
06.04.2021 14:28 2,6 C 1,1 C -1,1 C 86 % 1012,9 hPa 0,0 l/m 0 min 2 min 15 W/m 25,7 km/h (4 Bft) 95,65 %
06.04.2021 14:30 2,0 C 0,6 C -2,2 C 87 % 1012,9 hPa 0,0 l/m 0 min 2 min 16 W/m 16,1 km/h (3 Bft) 91,49 %
06.04.2021 14:32 1,6 C 0,0 C -2,7 C 88 % 1012,8 hPa 0,0 l/m 0 min 2 min 24 W/m 12,9 km/h (3 Bft) 95,74 %
06.04.2021 14:34 1,4 C 0,0 C -2,7 C 89 % 1012,8 hPa 0,0 l/m 0 min 0 min 47 W/m 9,7 km/h (2 Bft) 95,74 %
06.04.2021 14:36 1,1 C 0,6 C -2,2 C 90 % 1012,6 hPa 0,0 l/m 0 min 0 min 85 W/m 6,4 km/h (2 Bft) 95,74 %
06.04.2021 14:38 1,1 C 0,6 C -1,6 C 91 % 1012,6 hPa 0,0 l/m 0 min 0 min 138 W/m 6,4 km/h (2 Bft) 95,74 %
06.04.2021 14:40 1,0 C 1,1 C -1,6 C 91 % 1012,6 hPa 0,0 l/m 0 min 0 min 192 W/m 12,9 km/h (3 Bft) 100,00 %
06.04.2021 14:42 1,0 C 1,7 C -1,1 C 92 % 1012,6 hPa 0,0 l/m 0 min 0 min 267 W/m 6,4 km/h (2 Bft) 95,74 %
06.04.2021 14:44 1,1 C 2,2 C -0,5 C 92 % 1012,6 hPa 0,0 l/m 0 min 0 min 243 W/m 12,9 km/h (3 Bft) 95,74 %
06.04.2021 14:46 1,3 C 3,3 C 0,0 C 93 % 1012,6 hPa 0,0 l/m 0 min 0 min 237 W/m 12,9 km/h (3 Bft) 95,74 %
06.04.2021 14:48 1,4 C 5,0 C 0,0 C 93 % 1012,5 hPa 0,0 l/m 2 min 0 min 720 W/m 12,9 km/h (3 Bft) 97,87 %
06.04.2021 14:50 1,6 C 5,6 C 0,0 C 93 % 1012,5 hPa 0,0 l/m 2 min 0 min 773 W/m 12,9 km/h (3 Bft) 93,62 %
06.04.2021 14:52 1,8 C 5,6 C 0,0 C 94 % 1012,5 hPa 0,2 l/m 2 min 0 min 665 W/m 16,1 km/h (3 Bft) 95,65 %
06.04.2021 14:54 2,0 C 7,2 C 0,0 C 94 % 1012,4 hPa 0,0 l/m 2 min 0 min 725 W/m 12,9 km/h (3 Bft) 97,87 %
06.04.2021 14:56 2,3 C 6,7 C 0,6 C 95 % 1012,4 hPa 0,2 l/m 2 min 0 min 747 W/m 12,9 km/h (3 Bft) 100,00 %
06.04.2021 14:58 2,5 C 7,8 C 0,6 C 95 % 1012,4 hPa 0,0 l/m 2 min 0 min 755 W/m 12,9 km/h (3 Bft) 100,00 %
06.04.2021 15:00 2,8 C 8,3 C 1,1 C 95 % 1012,4 hPa 0,0 l/m 2 min 0 min 755 W/m 9,7 km/h (2 Bft) 100,00 %
06.04.2021 15:02 3,1 C 8,3 C 1,1 C 95 % 1012,3 hPa 0,2 l/m 2 min 0 min 772 W/m 19,3 km/h (3 Bft) 98,11 %
06.04.2021 15:04 3,3 C 8,9 C 1,1 C 95 % 1012,3 hPa 0,0 l/m 2 min 0 min 798 W/m 19,3 km/h (3 Bft) 100,00 %
06.04.2021 15:06 3,5 C 7,2 C 1,7 C 95 % 1012,3 hPa 0,0 l/m 2 min 0 min 556 W/m 16,1 km/h (3 Bft) 97,87 %
06.04.2021 15:08 3,6 C 7,8 C 1,7 C 94 % 1012,2 hPa 0,0 l/m 0 min 0 min 296 W/m 16,1 km/h (3 Bft) 100,00 %
06.04.2021 15:10 3,9 C 7,8 C 1,7 C 94 % 1012,2 hPa 0,0 l/m 2 min 0 min 671 W/m 12,9 km/h (3 Bft) 100,00 %
06.04.2021 15:12 4,0 C 7,2 C 2,3 C 94 % 1012,2 hPa 0,0 l/m 2 min 0 min 703 W/m 19,3 km/h (3 Bft) 100,00 %
06.04.2021 15:14 4,1 C 6,1 C 2,3 C 93 % 1012,2 hPa 0,2 l/m 2 min 0 min 331 W/m 19,3 km/h (3 Bft) 100,00 %
06.04.2021 15:16 4,0 C 4,4 C 1,7 C 92 % 1012,2 hPa 0,0 l/m 0 min 0 min 107 W/m 16,1 km/h (3 Bft) 97,87 %
06.04.2021 15:18 3,7 C 3,3 C 1,1 C 91 % 1012,3 hPa 0,0 l/m 0 min 2 min 101 W/m 19,3 km/h (3 Bft) 100,00 %
06.04.2021 15:20 3,4 C 3,3 C 0,6 C 90 % 1012,2 hPa 0,0 l/m 0 min 2 min 201 W/m 19,3 km/h (3 Bft) 100,00 %
06.04.2021 15:22 3,3 C 3,9 C 1,1 C 91 % 1012,2 hPa 0,0 l/m 0 min 0 min 269 W/m 16,1 km/h (3 Bft) 97,87 %
06.04.2021 15:24 3,3 C 5,0 C 1,1 C 91 % 1012,3 hPa 0,0 l/m 0 min 2 min 269 W/m 16,1 km/h (3 Bft) 100,00 %
06.04.2021 15:26 3,4 C 6,1 C 1,7 C 91 % 1012,2 hPa 0,0 l/m 2 min 0 min 458 W/m 19,3 km/h (3 Bft) 100,00 %
06.04.2021 15:28 3,5 C 6,1 C 1,7 C 92 % 1012,1 hPa 0,0 l/m 2 min 0 min 597 W/m 16,1 km/h (3 Bft) 100,00 %
06.04.2021 15:30 3,7 C 5,6 C 1,7 C 92 % 1012,1 hPa 0,0 l/m 2 min 0 min 320 W/m 19,3 km/h (3 Bft) 100,00 %
06.04.2021 15:32 3,8 C 4,4 C 1,7 C 91 % 1012,2 hPa 0,0 l/m 0 min 0 min 293 W/m 22,5 km/h (4 Bft) 100,00 %
06.04.2021 15:34 3,7 C 4,4 C 1,7 C 91 % 1012,1 hPa 0,0 l/m 2 min 0 min 321 W/m 19,3 km/h (3 Bft) 100,00 %
06.04.2021 15:36 3,6 C 3,9 C 1,7 C 90 % 1012,2 hPa 0,0 l/m 2 min 0 min 311 W/m 25,7 km/h (4 Bft) 100,00 %
06.04.2021 15:38 3,5 C 3,9 C 1,7 C 89 % 1012,1 hPa 0,0 l/m 0 min 0 min 292 W/m 19,3 km/h (3 Bft) 100,00 %
06.04.2021 15:40 3,4 C 3,9 C 1,7 C 89 % 1012,1 hPa 0,0 l/m 0 min 0 min 285 W/m 25,7 km/h (4 Bft) 97,87 %
06.04.2021 15:42 3,3 C 3,3 C 1,1 C 88 % 1012,1 hPa 0,0 l/m 0 min 0 min 287 W/m 25,7 km/h (4 Bft) 97,83 %
06.04.2021 15:44 3,1 C 3,3 C 1,1 C 88 % 1012,0 hPa 0,0 l/m 0 min 0 min 293 W/m 35,4 km/h (5 Bft) 100,00 %
06.04.2021 15:46 3,1 C 3,3 C 0,6 C 88 % 1012,0 hPa 0,0 l/m 2 min 0 min 303 W/m 35,4 km/h (5 Bft) 95,74 %
06.04.2021 15:48 3,0 C 3,9 C 1,1 C 88 % 1012,0 hPa 0,0 l/m 2 min 0 min 369 W/m 19,3 km/h (3 Bft) 100,00 %
06.04.2021 15:50 3,1 C 5,0 C 1,1 C 88 % 1012,0 hPa 0,0 l/m 2 min 0 min 476 W/m 25,7 km/h (4 Bft) 100,00 %
06.04.2021 15:52 3,3 C 6,1 C 1,1 C 88 % 1011,9 hPa 0,0 l/m 2 min 0 min 661 W/m 25,7 km/h (4 Bft) 56,52 %
06.04.2021 15:54 3,5 C 7,2 C 1,7 C 88 % 1012,0 hPa 0,0 l/m 2 min 0 min 744 W/m 22,5 km/h (4 Bft) 97,83 %
06.04.2021 15:56 3,7 C 6,7 C 1,7 C 88 % 1011,9 hPa 0,0 l/m 2 min 0 min 687 W/m 19,3 km/h (3 Bft) 97,87 %
06.04.2021 15:58 3,8 C 5,6 C 1,7 C 87 % 1011,9 hPa 0,0 l/m 2 min 0 min 467 W/m 16,1 km/h (3 Bft) 100,00 %
06.04.2021 16:00 3,9 C 5,6 C 1,7 C 87 % 1011,9 hPa 0,0 l/m 2 min 0 min 361 W/m 22,5 km/h (4 Bft) 100,00 %
06.04.2021 16:02 3,9 C 5,0 C 1,7 C 86 % 1011,8 hPa 0,0 l/m 2 min 0 min 331 W/m 25,7 km/h (4 Bft) 100,00 %
06.04.2021 16:04 3,8 C 5,0 C 1,7 C 86 % 1011,9 hPa 0,0 l/m 2 min 0 min 324 W/m 29,0 km/h (5 Bft) 100,00 %
06.04.2021 16:06 3,8 C 5,0 C 1,7 C 86 % 1011,8 hPa 0,0 l/m 2 min 0 min 368 W/m 19,3 km/h (3 Bft) 100,00 %
06.04.2021 16:08 3,8 C 5,0 C 1,7 C 86 % 1011,9 hPa 0,0 l/m 2 min 0 min 315 W/m 19,3 km/h (3 Bft) 100,00 %
06.04.2021 16:10 3,8 C 5,0 C 1,7 C 86 % 1011,9 hPa 0,0 l/m 0 min 0 min 250 W/m 19,3 km/h (3 Bft) 100,00 %
06.04.2021 16:12 3,7 C 5,0 C 1,7 C 85 % 1011,9 hPa 0,0 l/m 0 min 0 min 277 W/m 22,5 km/h (4 Bft) 100,00 %
06.04.2021 16:14 3,7 C 5,0 C 1,7 C 85 % 1011,9 hPa 0,0 l/m 2 min 0 min 295 W/m 22,5 km/h (4 Bft) 100,00 %
06.04.2021 16:16 3,8 C 5,0 C 1,7 C 85 % 1011,9 hPa 0,0 l/m 2 min 0 min 337 W/m 19,3 km/h (3 Bft) 100,00 %
06.04.2021 16:18 3,7 C 5,0 C 1,1 C 85 % 1011,9 hPa 0,0 l/m 2 min 0 min 323 W/m 19,3 km/h (3 Bft) 97,87 %
06.04.2021 16:20 3,7 C 5,0 C 1,7 C 85 % 1011,9 hPa 0,0 l/m 2 min 0 min 299 W/m 19,3 km/h (3 Bft) 100,00 %
06.04.2021 16:22 3,7 C 4,4 C 1,7 C 85 % 1011,9 hPa 0,0 l/m 2 min 0 min 295 W/m 16,1 km/h (3 Bft) 100,00 %
06.04.2021 16:24 3,7 C 5,0 C 1,7 C 85 % 1011,9 hPa 0,0 l/m 2 min 0 min 310 W/m 9,7 km/h (2 Bft) 100,00 %
06.04.2021 16:26 3,8 C 5,0 C 1,7 C 86 % 1011,8 hPa 0,0 l/m 2 min 0 min 328 W/m 16,1 km/h (3 Bft) 100,00 %
06.04.2021 16:28 3,8 C 5,6 C 1,7 C 85 % 1011,8 hPa 0,0 l/m 2 min 0 min 373 W/m 19,3 km/h (3 Bft) 95,74 %
06.04.2021 16:30 3,8 C 6,1 C 1,7 C 85 % 1011,8 hPa 0,0 l/m 2 min 0 min 391 W/m 12,9 km/h (3 Bft) 97,87 %
06.04.2021 16:32 3,9 C 6,1 C 1,7 C 86 % 1011,8 hPa 0,0 l/m 2 min 0 min 374 W/m 19,3 km/h (3 Bft) 100,00 %
06.04.2021 16:34 3,9 C 6,1 C 1,7 C 85 % 1011,8 hPa 0,0 l/m 2 min 0 min 266 W/m 16,1 km/h (3 Bft) 100,00 %
06.04.2021 16:36 4,0 C 6,1 C 1,7 C 85 % 1011,8 hPa 0,0 l/m 2 min 0 min 352 W/m 19,3 km/h (3 Bft) 95,74 %
06.04.2021 16:38 4,0 C 5,0 C 1,7 C 84 % 1011,8 hPa 0,0 l/m 2 min 0 min 332 W/m 19,3 km/h (3 Bft) 100,00 %
06.04.2021 16:40 4,0 C 6,1 C 1,7 C 83 % 1011,6 hPa 0,0 l/m 2 min 0 min 355 W/m 22,5 km/h (4 Bft) 100,00 %
06.04.2021 16:42 4,0 C 5,6 C 1,7 C 82 % 1011,6 hPa 0,0 l/m 2 min 0 min 479 W/m 16,1 km/h (3 Bft) 100,00 %
06.04.2021 16:44 4,0 C 5,0 C 1,7 C 82 % 1011,7 hPa 0,0 l/m 2 min 0 min 297 W/m 19,3 km/h (3 Bft) 97,87 %
06.04.2021 16:46 4,0 C 6,1 C 1,7 C 82 % 1011,6 hPa 0,0 l/m 2 min 0 min 308 W/m 19,3 km/h (3 Bft) 97,87 %
06.04.2021 16:48 4,1 C 6,7 C 2,3 C 83 % 1011,6 hPa 0,0 l/m 2 min 0 min 464 W/m 22,5 km/h (4 Bft) 97,87 %
06.04.2021 16:50 4,3 C 7,2 C 2,3 C 83 % 1011,7 hPa 0,0 l/m 2 min 0 min 494 W/m 22,5 km/h (4 Bft) 97,83 %
06.04.2021 16:52 4,4 C 6,7 C 2,3 C 83 % 1011,7 hPa 0,0 l/m 2 min 0 min 573 W/m 22,5 km/h (4 Bft) 97,87 %
06.04.2021 16:54 4,4 C 6,7 C 2,3 C 82 % 1011,8 hPa 0,0 l/m 2 min 0 min 573 W/m 22,5 km/h (4 Bft) 93,62 %
06.04.2021 16:56 4,4 C 6,1 C 2,3 C 82 % 1011,8 hPa 0,0 l/m 2 min 0 min 492 W/m 22,5 km/h (4 Bft) 95,74 %
06.04.2021 16:58 4,3 C 5,6 C 2,3 C 81 % 1011,8 hPa 0,0 l/m 2 min 0 min 271 W/m 22,5 km/h (4 Bft) 95,74 %
06.04.2021 17:00 4,2 C 5,0 C 2,3 C 81 % 1011,8 hPa 0,0 l/m 2 min 0 min 320 W/m 16,1 km/h (3 Bft) 93,62 %
06.04.2021 17:02 4,2 C 5,0 C 2,3 C 83 % 1011,8 hPa 0,0 l/m 2 min 0 min 278 W/m 22,5 km/h (4 Bft) 95,65 %
06.04.2021 17:04 4,1 C 4,4 C 1,7 C 82 % 1011,8 hPa 0,0 l/m 0 min 0 min 192 W/m 22,5 km/h (4 Bft) 91,49 %
06.04.2021 17:06 4,0 C 3,9 C 1,7 C 82 % 1011,8 hPa 0,0 l/m 0 min 0 min 166 W/m 19,3 km/h (3 Bft) 93,75 %
06.04.2021 17:08 3,9 C 3,9 C 1,7 C 83 % 1011,8 hPa 0,0 l/m 0 min 0 min 177 W/m 16,1 km/h (3 Bft) 93,62 %
06.04.2021 17:10 3,9 C 3,9 C 1,7 C 83 % 1011,9 hPa 0,0 l/m 0 min 0 min 169 W/m 12,9 km/h (3 Bft) 95,74 %
06.04.2021 17:12 3,8 C 3,9 C 1,7 C 83 % 1011,9 hPa 0,0 l/m 0 min 0 min 162 W/m 16,1 km/h (3 Bft) 93,48 %
06.04.2021 17:14 3,8 C 3,9 C 1,7 C 84 % 1011,8 hPa 0,0 l/m 0 min 0 min 185 W/m 19,3 km/h (3 Bft) 91,49 %
06.04.2021 17:16 3,8 C 4,4 C 1,7 C 84 % 1011,8 hPa 0,0 l/m 2 min 0 min 232 W/m 19,3 km/h (3 Bft) 93,62 %
06.04.2021 17:18 3,8 C 4,4 C 1,7 C 84 % 1011,8 hPa 0,0 l/m 0 min 0 min 176 W/m 12,9 km/h (3 Bft) 91,49 %
06.04.2021 17:20 3,8 C 3,9 C 1,7 C 84 % 1011,7 hPa 0,0 l/m 0 min 0 min 159 W/m 29,0 km/h (5 Bft) 93,62 %
06.04.2021 17:22 3,6 C 3,9 C 1,7 C 84 % 1011,8 hPa 0,0 l/m 0 min 0 min 115 W/m 25,7 km/h (4 Bft) 91,49 %
06.04.2021 17:24 3,6 C 3,9 C 1,7 C 84 % 1011,9 hPa 0,0 l/m 0 min 0 min 75 W/m 25,7 km/h (4 Bft) 93,62 %
06.04.2021 17:26 3,6 C 3,3 C 1,1 C 84 % 1011,9 hPa 0,0 l/m 0 min 0 min 51 W/m 22,5 km/h (4 Bft) 91,30 %
06.04.2021 17:28 3,5 C 2,8 C 1,1 C 84 % 1011,9 hPa 0,0 l/m 0 min 0 min 41 W/m 22,5 km/h (4 Bft) 93,62 %
06.04.2021 17:30 3,4 C 2,8 C 0,6 C 84 % 1011,9 hPa 0,0 l/m 0 min 0 min 35 W/m 25,7 km/h (4 Bft) 93,62 %
06.04.2021 17:32 3,1 C 2,2 C 0,0 C 85 % 1011,9 hPa 0,0 l/m 0 min 0 min 35 W/m 19,3 km/h (3 Bft) 93,62 %
06.04.2021 17:34 3,0 C 2,2 C 0,0 C 85 % 1011,9 hPa 0,0 l/m 0 min 0 min 41 W/m 19,3 km/h (3 Bft) 91,49 %
06.04.2021 17:36 2,8 C 1,7 C -0,5 C 85 % 1012,0 hPa 0,0 l/m 0 min 2 min 39 W/m 22,5 km/h (4 Bft) 91,30 %
06.04.2021 17:38 2,6 C 1,7 C -0,5 C 86 % 1011,9 hPa 0,0 l/m 0 min 2 min 38 W/m 16,1 km/h (3 Bft) 89,36 %
06.04.2021 17:40 2,5 C 1,1 C -1,1 C 87 % 1012,0 hPa 0,0 l/m 0 min 2 min 61 W/m 19,3 km/h (3 Bft) 97,87 %
06.04.2021 17:42 2,3 C 1,7 C -0,5 C 87 % 1011,9 hPa 0,0 l/m 0 min 0 min 185 W/m 22,5 km/h (4 Bft) 97,87 %
06.04.2021 17:44 2,1 C 2,2 C 0,0 C 88 % 1011,8 hPa 0,0 l/m 2 min 0 min 199 W/m 16,1 km/h (3 Bft) 100,00 %
06.04.2021 17:46 2,1 C 2,8 C 0,0 C 89 % 1011,9 hPa 0,0 l/m 2 min 0 min 191 W/m 16,1 km/h (3 Bft) 97,87 %
06.04.2021 17:48 2,1 C 3,3 C 0,0 C 89 % 1011,9 hPa 0,0 l/m 2 min 0 min 250 W/m 22,5 km/h (4 Bft) 97,83 %
06.04.2021 17:50 2,1 C 3,3 C 0,0 C 90 % 1011,8 hPa 0,0 l/m 2 min 0 min 187 W/m 16,1 km/h (3 Bft) 95,74 %
06.04.2021 17:52 2,3 C 3,3 C 0,6 C 91 % 1011,7 hPa 0,2 l/m 2 min 0 min 183 W/m 25,7 km/h (4 Bft) 97,87 %
06.04.2021 17:54 2,4 C 3,9 C 0,6 C 91 % 1011,8 hPa 0,0 l/m 2 min 0 min 237 W/m 16,1 km/h (3 Bft) 97,87 %
06.04.2021 17:56 2,5 C 4,4 C 0,6 C 92 % 1011,7 hPa 0,0 l/m 2 min 0 min 283 W/m 12,9 km/h (3 Bft) 97,87 %
06.04.2021 17:58 2,6 C 5,6 C 1,1 C 92 % 1011,6 hPa 0,0 l/m 2 min 2 min 343 W/m 16,1 km/h (3 Bft) 91,49 %
06.04.2021 18:00 2,8 C 5,6 C 1,1 C 92 % 1011,6 hPa 0,0 l/m 2 min 0 min 343 W/m 12,9 km/h (3 Bft) 97,83 %
06.04.2021 18:02 2,9 C 4,4 C 1,1 C 92 % 1011,6 hPa 0,0 l/m 2 min 0 min 195 W/m 12,9 km/h (3 Bft) 98,15 %
06.04.2021 18:04 3,0 C 4,4 C 1,1 C 91 % 1011,6 hPa 0,0 l/m 2 min 0 min 202 W/m 12,9 km/h (3 Bft) 97,83 %
06.04.2021 18:08 3,1 C 3,9 C 1,1 C 91 % 1011,6 hPa 0,0 l/m 4 min 0 min 160 W/m 22,5 km/h (4 Bft) 96,84 %
06.04.2021 18:10 3,2 C 3,9 C 1,1 C 90 % 1011,5 hPa 0,0 l/m 0 min 0 min 154 W/m 9,7 km/h (2 Bft) 95,74 %
06.04.2021 18:12 3,3 C 3,9 C 1,1 C 90 % 1011,6 hPa 0,0 l/m 2 min 0 min 157 W/m 16,1 km/h (3 Bft) 97,87 %
06.04.2021 18:14 3,3 C 3,9 C 1,1 C 89 % 1011,6 hPa 0,0 l/m 2 min 0 min 156 W/m 16,1 km/h (3 Bft) 97,87 %
06.04.2021 18:16 3,3 C 3,9 C 1,1 C 89 % 1011,6 hPa 0,0 l/m 2 min 0 min 153 W/m 22,5 km/h (4 Bft) 95,65 %
06.04.2021 18:18 3,3 C 3,3 C 1,1 C 88 % 1011,7 hPa 0,0 l/m 2 min 2 min 149 W/m 25,7 km/h (4 Bft) 97,87 %
06.04.2021 18:20 3,3 C 3,3 C 0,6 C 86 % 1011,8 hPa 0,0 l/m 0 min 2 min 142 W/m 16,1 km/h (3 Bft) 97,87 %
06.04.2021 18:22 3,2 C 3,3 C 0,6 C 86 % 1011,6 hPa 0,0 l/m 0 min 2 min 125 W/m 19,3 km/h (3 Bft) 97,87 %
06.04.2021 18:24 3,3 C 3,3 C 1,1 C 86 % 1011,6 hPa 0,0 l/m 0 min 0 min 108 W/m 16,1 km/h (3 Bft) 100,00 %
06.04.2021 18:26 3,3 C 3,3 C 0,6 C 86 % 1011,5 hPa 0,0 l/m 0 min 0 min 97 W/m 6,4 km/h (2 Bft) 100,00 %
06.04.2021 18:28 3,2 C 3,3 C 0,6 C 86 % 1011,4 hPa 0,0 l/m 0 min 0 min 88 W/m 16,1 km/h (3 Bft) 97,83 %
06.04.2021 18:30 3,1 C 2,8 C 0,6 C 85 % 1011,5 hPa 0,0 l/m 0 min 0 min 86 W/m 19,3 km/h (3 Bft) 100,00 %
06.04.2021 18:32 3,1 C 2,8 C 0,6 C 84 % 1011,5 hPa 0,0 l/m 0 min 0 min 84 W/m 12,9 km/h (3 Bft) 100,00 %
06.04.2021 18:34 3,1 C 2,8 C 0,6 C 84 % 1011,6 hPa 0,0 l/m 0 min 0 min 83 W/m 19,3 km/h (3 Bft) 100,00 %
06.04.2021 18:36 3,0 C 2,8 C 0,6 C 84 % 1011,5 hPa 0,0 l/m 0 min 0 min 84 W/m 16,1 km/h (3 Bft) 100,00 %
06.04.2021 18:38 3,0 C 2,8 C 0,6 C 84 % 1011,5 hPa 0,0 l/m 0 min 0 min 84 W/m 16,1 km/h (3 Bft) 100,00 %
06.04.2021 18:40 3,0 C 2,8 C 0,6 C 84 % 1011,5 hPa 0,0 l/m 0 min 0 min 85 W/m 16,1 km/h (3 Bft) 100,00 %
06.04.2021 18:42 3,0 C 2,8 C 0,6 C 84 % 1011,5 hPa 0,0 l/m 0 min 0 min 91 W/m 16,1 km/h (3 Bft) 97,92 %
06.04.2021 18:44 3,0 C 2,8 C 0,6 C 85 % 1011,6 hPa 0,0 l/m 0 min 0 min 99 W/m 16,1 km/h (3 Bft) 97,87 %
06.04.2021 18:46 3,0 C 2,8 C 0,6 C 85 % 1011,5 hPa 0,0 l/m 0 min 0 min 99 W/m 19,3 km/h (3 Bft) 97,87 %
06.04.2021 18:48 3,0 C 3,3 C 0,6 C 85 % 1011,5 hPa 0,0 l/m 0 min 0 min 107 W/m 12,9 km/h (3 Bft) 100,00 %
06.04.2021 18:50 3,0 C 3,3 C 1,1 C 85 % 1011,6 hPa 0,0 l/m 2 min 0 min 127 W/m 25,7 km/h (4 Bft) 100,00 %
06.04.2021 18:52 3,0 C 3,3 C 1,1 C 85 % 1011,5 hPa 0,0 l/m 2 min 0 min 172 W/m 19,3 km/h (3 Bft) 100,00 %
06.04.2021 18:54 3,0 C 3,3 C 1,1 C 84 % 1011,5 hPa 0,0 l/m 2 min 0 min 120 W/m 19,3 km/h (3 Bft) 97,22 %
06.04.2021 18:56 3,0 C 3,3 C 1,1 C 84 % 1011,4 hPa 0,0 l/m 2 min 0 min 101 W/m 12,9 km/h (3 Bft) 100,00 %
06.04.2021 18:58 3,0 C 2,8 C 1,1 C 83 % 1011,5 hPa 0,0 l/m 0 min 0 min 89 W/m 22,5 km/h (4 Bft) 100,00 %
06.04.2021 19:00 3,0 C 2,8 C 0,6 C 83 % 1011,5 hPa 0,0 l/m 0 min 0 min 74 W/m 16,1 km/h (3 Bft) 100,00 %
06.04.2021 19:02 2,9 C 2,8 C 0,6 C 83 % 1011,6 hPa 0,0 l/m 0 min 0 min 51 W/m 19,3 km/h (3 Bft) 100,00 %
06.04.2021 19:04 2,8 C 2,2 C 0,6 C 82 % 1011,7 hPa 0,0 l/m 0 min 0 min 30 W/m 25,7 km/h (4 Bft) 100,00 %
06.04.2021 19:06 2,7 C 2,2 C 0,6 C 82 % 1011,6 hPa 0,0 l/m 0 min 0 min 24 W/m 16,1 km/h (3 Bft) 100,00 %
06.04.2021 19:08 2,6 C 2,2 C 0,6 C 83 % 1011,8 hPa 0,0 l/m 0 min 0 min 17 W/m 16,1 km/h (3 Bft) 100,00 %
06.04.2021 19:10 2,5 C 2,2 C 0,0 C 83 % 1011,8 hPa 0,0 l/m 0 min 0 min 13 W/m 19,3 km/h (3 Bft) 95,74 %
06.04.2021 19:12 2,4 C 1,7 C 0,0 C 84 % 1011,8 hPa 0,0 l/m 0 min 0 min 12 W/m 19,3 km/h (3 Bft) 100,00 %
06.04.2021 19:14 2,4 C 1,7 C 0,0 C 85 % 1011,8 hPa 0,0 l/m 0 min 0 min 12 W/m 19,3 km/h (3 Bft) 97,87 %
06.04.2021 19:16 2,3 C 1,7 C -0,5 C 85 % 1011,9 hPa 0,0 l/m 0 min 2 min 11 W/m 22,5 km/h (4 Bft) 100,00 %
06.04.2021 19:18 2,0 C 1,1 C -0,5 C 86 % 1011,8 hPa 0,0 l/m 0 min 2 min 13 W/m 19,3 km/h (3 Bft) 100,00 %
06.04.2021 19:20 1,8 C 0,6 C -1,1 C 87 % 1011,8 hPa 0,0 l/m 0 min 2 min 23 W/m 16,1 km/h (3 Bft) 100,00 %
06.04.2021 19:22 1,5 C 0,6 C -1,1 C 88 % 1011,7 hPa 0,0 l/m 0 min 2 min 24 W/m 16,1 km/h (3 Bft) 97,87 %
06.04.2021 19:24 1,4 C 0,6 C -1,1 C 89 % 1011,7 hPa 0,0 l/m 0 min 2 min 28 W/m 19,3 km/h (3 Bft) 97,87 %
06.04.2021 19:26 1,3 C 0,6 C -1,1 C 90 % 1011,7 hPa 0,0 l/m 0 min 0 min 30 W/m 12,9 km/h (3 Bft) 100,00 %
06.04.2021 19:28 1,2 C 0,6 C -1,1 C 90 % 1011,7 hPa 0,0 l/m 0 min 2 min 37 W/m 19,3 km/h (3 Bft) 100,00 %
06.04.2021 19:30 1,2 C 0,6 C -1,1 C 91 % 1011,6 hPa 0,0 l/m 0 min 2 min 49 W/m 9,7 km/h (2 Bft) 100,00 %
06.04.2021 19:32 1,2 C 1,1 C -1,1 C 91 % 1011,7 hPa 0,0 l/m 2 min 0 min 66 W/m 16,1 km/h (3 Bft) 97,92 %
06.04.2021 19:34 1,3 C 1,1 C -0,5 C 91 % 1011,7 hPa 0,0 l/m 2 min 0 min 73 W/m 22,5 km/h (4 Bft) 100,00 %
06.04.2021 19:36 1,4 C 1,1 C -0,5 C 91 % 1011,7 hPa 0,0 l/m 2 min 0 min 65 W/m 19,3 km/h (3 Bft) 100,00 %
06.04.2021 19:38 1,4 C 1,1 C -0,5 C 91 % 1011,8 hPa 0,0 l/m 2 min 0 min 52 W/m 12,9 km/h (3 Bft) 100,00 %
06.04.2021 19:40 1,5 C 1,1 C -0,5 C 91 % 1011,8 hPa 0,0 l/m 2 min 0 min 44 W/m 19,3 km/h (3 Bft) 97,87 %
06.04.2021 19:42 1,5 C 1,1 C -0,5 C 91 % 1011,7 hPa 0,0 l/m 2 min 0 min 40 W/m 16,1 km/h (3 Bft) 93,62 %
06.04.2021 19:44 1,5 C 1,1 C -0,5 C 90 % 1011,9 hPa 0,0 l/m 0 min 0 min 34 W/m 9,7 km/h (2 Bft) 97,87 %
06.04.2021 19:46 1,5 C 1,1 C -0,5 C 90 % 1011,8 hPa 0,0 l/m 0 min 2 min 30 W/m 16,1 km/h (3 Bft) 97,87 %
06.04.2021 19:48 1,5 C 1,1 C -0,5 C 90 % 1011,8 hPa 0,0 l/m 0 min 0 min 26 W/m 19,3 km/h (3 Bft) 95,74 %
06.04.2021 19:50 1,5 C 1,1 C -0,5 C 90 % 1011,9 hPa 0,0 l/m 0 min 2 min 24 W/m 19,3 km/h (3 Bft) 97,83 %
06.04.2021 19:52 1,5 C 1,1 C -0,5 C 90 % 1011,9 hPa 0,0 l/m 0 min 0 min 20 W/m 16,1 km/h (3 Bft) 95,83 %
06.04.2021 19:54 1,5 C 1,1 C -0,5 C 90 % 1011,9 hPa 0,0 l/m 0 min 0 min 19 W/m 6,4 km/h (2 Bft) 97,87 %
06.04.2021 19:56 1,5 C 1,1 C -0,5 C 90 % 1012,1 hPa 0,0 l/m 0 min 0 min 18 W/m 12,9 km/h (3 Bft) 95,74 %
06.04.2021 19:58 1,5 C 1,1 C -0,5 C 90 % 1011,9 hPa 0,0 l/m 0 min 2 min 15 W/m 16,1 km/h (3 Bft) 93,62 %
06.04.2021 20:00 1,4 C 1,1 C -0,5 C 90 % 1011,9 hPa 0,0 l/m 0 min 2 min 13 W/m 19,3 km/h (3 Bft) 95,74 %
06.04.2021 20:02 1,4 C 1,1 C -0,5 C 90 % 1012,0 hPa 0,0 l/m 0 min 2 min 11 W/m 16,1 km/h (3 Bft) 93,62 %
06.04.2021 20:04 1,4 C 1,1 C -0,5 C 90 % 1012,1 hPa 0,0 l/m 0 min 0 min 9 W/m 16,1 km/h (3 Bft) 93,62 %
06.04.2021 20:06 1,4 C 0,6 C -0,5 C 90 % 1012,1 hPa 0,0 l/m 0 min 0 min 7 W/m 22,5 km/h (4 Bft) 97,87 %
06.04.2021 20:08 1,4 C 0,6 C -0,5 C 91 % 1012,1 hPa 0,0 l/m 0 min 0 min 6 W/m 19,3 km/h (3 Bft) 95,74 %
06.04.2021 20:10 1,3 C 0,6 C -0,5 C 90 % 1012,1 hPa 0,0 l/m 0 min 0 min 5 W/m 12,9 km/h (3 Bft) 95,74 %
06.04.2021 20:12 1,3 C 0,6 C -0,5 C 90 % 1012,1 hPa 0,0 l/m 0 min 0 min 2 W/m 12,9 km/h (3 Bft) 95,74 %
06.04.2021 20:14 1,3 C 0,6 C -0,5 C 91 % 1012,1 hPa 0,0 l/m 0 min 0 min 0 W/m 9,7 km/h (2 Bft) 93,48 %
06.04.2021 20:16 1,3 C 0,6 C -0,5 C 91 % 1012,1 hPa 0,0 l/m 0 min 0 min 0 W/m 12,9 km/h (3 Bft) 95,74 %
06.04.2021 20:18 1,3 C 0,6 C -0,5 C 91 % 1012,2 hPa 0,0 l/m 0 min 0 min 0 W/m 12,9 km/h (3 Bft) 95,74 %
06.04.2021 20:20 1,2 C 0,6 C -0,5 C 91 % 1012,1 hPa 0,0 l/m 0 min 0 min 0 W/m 16,1 km/h (3 Bft) 95,74 %
06.04.2021 20:22 1,2 C 0,6 C -0,5 C 91 % 1012,2 hPa 0,0 l/m 0 min 0 min 0 W/m 12,9 km/h (3 Bft) 95,74 %
06.04.2021 20:24 1,2 C 0,6 C -1,1 C 91 % 1012,2 hPa 0,0 l/m 0 min 0 min 0 W/m 16,1 km/h (3 Bft) 95,74 %
06.04.2021 20:26 1,1 C 0,6 C -1,1 C 91 % 1012,2 hPa 0,0 l/m 0 min 0 min 0 W/m 12,9 km/h (3 Bft) 95,74 %
06.04.2021 20:28 1,1 C 0,6 C -1,1 C 91 % 1012,2 hPa 0,0 l/m 0 min 0 min 0 W/m 12,9 km/h (3 Bft) 97,87 %
06.04.2021 20:30 1,1 C 0,6 C -1,1 C 92 % 1012,3 hPa 0,0 l/m 0 min 0 min 0 W/m 12,9 km/h (3 Bft) 95,74 %
06.04.2021 20:32 1,1 C 0,6 C -1,1 C 92 % 1012,3 hPa 0,0 l/m 0 min 0 min 0 W/m 9,7 km/h (2 Bft) 93,48 %
06.04.2021 20:34 1,0 C 0,6 C -1,1 C 92 % 1012,3 hPa 0,0 l/m 0 min 0 min 0 W/m 12,9 km/h (3 Bft) 95,74 %
06.04.2021 20:36 1,0 C 0,6 C -1,1 C 92 % 1012,4 hPa 0,0 l/m 0 min 0 min 0 W/m 12,9 km/h (3 Bft) 97,87 %
06.04.2021 20:38 1,0 C 0,6 C -1,1 C 92 % 1012,5 hPa 0,0 l/m 0 min 0 min 0 W/m 9,7 km/h (2 Bft) 97,87 %
06.04.2021 20:40 1,0 C 0,6 C -1,1 C 92 % 1012,5 hPa 0,0 l/m 0 min 0 min 0 W/m 16,1 km/h (3 Bft) 97,87 %
06.04.2021 20:42 1,0 C 0,6 C -1,1 C 92 % 1012,6 hPa 0,0 l/m 0 min 0 min 0 W/m 12,9 km/h (3 Bft) 95,74 %
06.04.2021 20:44 1,0 C 0,6 C -1,1 C 92 % 1012,5 hPa 0,0 l/m 0 min 0 min 0 W/m 22,5 km/h (4 Bft) 97,83 %
06.04.2021 20:46 1,1 C 0,6 C -0,5 C 92 % 1012,5 hPa 0,0 l/m 0 min 0 min 0 W/m 12,9 km/h (3 Bft) 97,87 %
06.04.2021 20:48 1,1 C 1,1 C -0,5 C 92 % 1012,6 hPa 0,0 l/m 0 min 0 min 0 W/m 16,1 km/h (3 Bft) 97,87 %
06.04.2021 20:50 1,2 C 1,1 C -0,5 C 92 % 1012,6 hPa 0,0 l/m 0 min 0 min 0 W/m 25,7 km/h (4 Bft) 97,87 %
06.04.2021 20:52 1,3 C 1,1 C -0,5 C 92 % 1012,7 hPa 0,0 l/m 0 min 2 min 0 W/m 35,4 km/h (5 Bft) 100,00 %
06.04.2021 20:54 1,2 C 0,6 C -1,1 C 92 % 1012,9 hPa 0,0 l/m 0 min 2 min 0 W/m 38,6 km/h (5 Bft) 100,00 %
06.04.2021 20:56 1,1 C 0,0 C -1,6 C 92 % 1012,9 hPa 0,0 l/m 0 min 2 min 0 W/m 19,3 km/h (3 Bft) 100,00 %
06.04.2021 20:58 1,0 C 0,0 C -1,6 C 92 % 1012,9 hPa 0,0 l/m 0 min 0 min 0 W/m 9,7 km/h (2 Bft) 100,00 %
06.04.2021 21:00 1,0 C 0,0 C -1,6 C 92 % 1012,8 hPa 0,0 l/m 0 min 0 min 0 W/m 25,7 km/h (4 Bft) 100,00 %
06.04.2021 21:02 0,9 C 0,0 C -1,6 C 92 % 1012,9 hPa 0,0 l/m 0 min 0 min 0 W/m 19,3 km/h (3 Bft) 97,87 %
06.04.2021 21:04 0,8 C 0,0 C -1,6 C 92 % 1012,9 hPa 0,0 l/m 0 min 0 min 0 W/m 16,1 km/h (3 Bft) 100,00 %
06.04.2021 21:06 0,7 C 0,0 C -1,6 C 93 % 1012,9 hPa 0,0 l/m 0 min 0 min 0 W/m 19,3 km/h (3 Bft) 100,00 %
06.04.2021 21:08 0,6 C 0,0 C -1,6 C 93 % 1012,9 hPa 0,0 l/m 0 min 0 min 0 W/m 9,7 km/h (2 Bft) 100,00 %
06.04.2021 21:10 0,5 C 0,0 C -1,6 C 93 % 1012,9 hPa 0,0 l/m 0 min 0 min 0 W/m 9,7 km/h (2 Bft) 100,00 %
06.04.2021 21:12 0,5 C 0,0 C -1,6 C 93 % 1012,8 hPa 0,0 l/m 0 min 0 min 0 W/m 9,7 km/h (2 Bft) 97,87 %
06.04.2021 21:14 0,5 C 0,0 C -1,6 C 93 % 1012,8 hPa 0,0 l/m 0 min 0 min 0 W/m 9,7 km/h (2 Bft) 100,00 %
06.04.2021 21:16 0,5 C 0,0 C -1,6 C 94 % 1012,8 hPa 0,0 l/m 0 min 0 min 0 W/m 6,4 km/h (2 Bft) 100,00 %
06.04.2021 21:18 0,5 C 0,0 C -1,6 C 94 % 1012,8 hPa 0,0 l/m 0 min 0 min 0 W/m 16,1 km/h (3 Bft) 100,00 %
06.04.2021 21:20 0,5 C 0,0 C -1,6 C 94 % 1012,7 hPa 0,0 l/m 0 min 0 min 0 W/m 6,4 km/h (2 Bft) 100,00 %
06.04.2021 21:22 0,5 C 0,0 C -1,6 C 94 % 1012,7 hPa 0,0 l/m 0 min 0 min 0 W/m 6,4 km/h (2 Bft) 97,87 %
06.04.2021 21:24 0,5 C 0,0 C -1,6 C 94 % 1012,8 hPa 0,0 l/m 0 min 0 min 0 W/m 6,4 km/h (2 Bft) 100,00 %
06.04.2021 21:26 0,5 C 0,0 C -1,6 C 94 % 1012,8 hPa 0,0 l/m 0 min 0 min 0 W/m 9,7 km/h (2 Bft) 100,00 %
06.04.2021 21:28 0,5 C 0,0 C -1,6 C 94 % 1012,8 hPa 0,0 l/m 0 min 0 min 0 W/m 6,4 km/h (2 Bft) 100,00 %
06.04.2021 21:30 0,5 C 0,0 C -1,6 C 94 % 1012,7 hPa 0,0 l/m 0 min 0 min 0 W/m 6,4 km/h (2 Bft) 97,83 %
06.04.2021 21:32 0,4 C 0,0 C -1,1 C 94 % 1012,8 hPa 0,0 l/m 0 min 0 min 0 W/m 6,4 km/h (2 Bft) 100,00 %
06.04.2021 21:34 0,4 C 0,0 C -1,6 C 94 % 1012,8 hPa 0,0 l/m 0 min 0 min 0 W/m 6,4 km/h (2 Bft) 97,87 %
06.04.2021 21:36 0,4 C 0,0 C -1,1 C 94 % 1012,8 hPa 0,0 l/m 0 min 0 min 0 W/m 3,2 km/h (1 Bft) 100,00 %
06.04.2021 21:38 0,4 C 0,0 C -1,1 C 94 % 1012,8 hPa 0,0 l/m 0 min 0 min 0 W/m 6,4 km/h (2 Bft) 100,00 %
06.04.2021 21:40 0,4 C 0,0 C -1,1 C 94 % 1012,8 hPa 0,0 l/m 0 min 0 min 0 W/m 9,7 km/h (2 Bft) 100,00 %
06.04.2021 21:42 0,4 C 0,0 C -1,1 C 94 % 1012,9 hPa 0,0 l/m 0 min 0 min 0 W/m 6,4 km/h (2 Bft) 100,00 %
06.04.2021 21:44 0,4 C 0,0 C -1,1 C 94 % 1012,8 hPa 0,0 l/m 0 min 0 min 0 W/m 3,2 km/h (1 Bft) 100,00 %
06.04.2021 21:46 0,4 C 0,0 C -1,1 C 95 % 1012,8 hPa 0,0 l/m 0 min 0 min 0 W/m 6,4 km/h (2 Bft) 100,00 %
06.04.2021 21:48 0,5 C 0,0 C -1,1 C 95 % 1012,9 hPa 0,0 l/m 0 min 0 min 0 W/m 3,2 km/h (1 Bft) 100,00 %
06.04.2021 21:50 0,5 C 0,0 C -1,1 C 95 % 1012,8 hPa 0,0 l/m 0 min 0 min 0 W/m 3,2 km/h (1 Bft) 97,87 %
06.04.2021 21:52 0,4 C 0,0 C -1,6 C 95 % 1012,9 hPa 0,0 l/m 0 min 0 min 0 W/m 6,4 km/h (2 Bft) 97,92 %
06.04.2021 21:54 0,4 C 0,0 C -1,6 C 95 % 1012,9 hPa 0,0 l/m 0 min 0 min 0 W/m 6,4 km/h (2 Bft) 100,00 %
06.04.2021 21:56 0,4 C 0,0 C -1,1 C 95 % 1013,0 hPa 0,0 l/m 0 min 0 min 0 W/m 9,7 km/h (2 Bft) 100,00 %
06.04.2021 21:58 0,4 C 0,0 C -1,6 C 95 % 1012,9 hPa 0,0 l/m 0 min 0 min 0 W/m 6,4 km/h (2 Bft) 100,00 %
06.04.2021 22:00 0,4 C 0,0 C -1,6 C 95 % 1013,0 hPa 0,0 l/m 0 min 0 min 0 W/m 3,2 km/h (1 Bft) 97,83 %
06.04.2021 22:02 0,4 C 0,0 C -1,1 C 95 % 1013,0 hPa 0,0 l/m 0 min 0 min 0 W/m 6,4 km/h (2 Bft) 100,00 %
06.04.2021 22:04 0,4 C 0,0 C -1,1 C 95 % 1013,0 hPa 0,0 l/m 0 min 0 min 0 W/m 6,4 km/h (2 Bft) 100,00 %
06.04.2021 22:06 0,4 C 0,0 C -1,1 C 95 % 1013,0 hPa 0,0 l/m 0 min 0 min 0 W/m 12,9 km/h (3 Bft) 95,83 %
06.04.2021 22:08 0,4 C 0,0 C -1,1 C 95 % 1013,0 hPa 0,0 l/m 0 min 0 min 0 W/m 6,4 km/h (2 Bft) 95,74 %
06.04.2021 22:10 0,4 C 0,0 C -1,1 C 95 % 1013,1 hPa 0,0 l/m 0 min 0 min 0 W/m 6,4 km/h (2 Bft) 97,87 %
06.04.2021 22:12 0,4 C 0,0 C -1,1 C 95 % 1013,0 hPa 0,0 l/m 0 min 0 min 0 W/m 3,2 km/h (1 Bft) 97,87 %
06.04.2021 22:14 0,4 C 0,0 C -1,1 C 95 % 1013,1 hPa 0,0 l/m 0 min 0 min 0 W/m 6,4 km/h (2 Bft) 97,87 %
06.04.2021 22:16 0,4 C 0,0 C -1,6 C 95 % 1013,1 hPa 0,0 l/m 0 min 0 min 0 W/m 9,7 km/h (2 Bft) 97,87 %
06.04.2021 22:18 0,3 C 0,0 C -1,6 C 95 % 1013,2 hPa 0,0 l/m 0 min 0 min 0 W/m 6,4 km/h (2 Bft) 97,87 %
06.04.2021 22:20 0,3 C -0,6 C -1,6 C 95 % 1013,1 hPa 0,0 l/m 0 min 0 min 0 W/m 6,4 km/h (2 Bft) 97,87 %
06.04.2021 22:22 0,3 C -0,6 C -1,6 C 95 % 1013,1 hPa 0,0 l/m 0 min 0 min 0 W/m 6,4 km/h (2 Bft) 97,83 %
06.04.2021 22:24 0,3 C -0,6 C -1,6 C 95 % 1013,1 hPa 0,0 l/m 0 min 0 min 0 W/m 9,7 km/h (2 Bft) 97,87 %
06.04.2021 22:26 0,3 C -0,6 C -1,6 C 95 % 1013,1 hPa 0,0 l/m 0 min 0 min 0 W/m 16,1 km/h (3 Bft) 95,74 %
06.04.2021 22:28 0,2 C -0,6 C -1,6 C 95 % 1013,1 hPa 0,0 l/m 0 min 0 min 0 W/m 12,9 km/h (3 Bft) 97,87 %
06.04.2021 22:30 0,2 C -0,6 C -1,6 C 95 % 1013,1 hPa 0,0 l/m 0 min 0 min 0 W/m 6,4 km/h (2 Bft) 95,74 %
06.04.2021 22:32 0,3 C -0,6 C -1,6 C 95 % 1013,1 hPa 0,0 l/m 0 min 0 min 0 W/m 6,4 km/h (2 Bft) 97,87 %
06.04.2021 22:34 0,3 C 0,0 C -1,1 C 95 % 1013,2 hPa 0,0 l/m 0 min 0 min 0 W/m 9,7 km/h (2 Bft) 97,87 %
06.04.2021 22:36 0,3 C 0,0 C -1,1 C 95 % 1013,1 hPa 0,0 l/m 0 min 0 min 0 W/m 6,4 km/h (2 Bft) 95,74 %
06.04.2021 22:38 0,3 C 0,0 C -1,1 C 95 % 1013,2 hPa 0,0 l/m 0 min 0 min 0 W/m 6,4 km/h (2 Bft) 95,74 %
06.04.2021 22:40 0,3 C 0,0 C -1,1 C 95 % 1013,2 hPa 0,0 l/m 0 min 0 min 0 W/m 9,7 km/h (2 Bft) 97,83 %
06.04.2021 22:42 0,3 C 0,0 C -1,6 C 95 % 1013,3 hPa 0,0 l/m 0 min 2 min 0 W/m 6,4 km/h (2 Bft) 97,87 %
06.04.2021 22:44 0,4 C 0,0 C -1,1 C 95 % 1013,3 hPa 0,0 l/m 0 min 0 min 0 W/m 6,4 km/h (2 Bft) 97,87 %
06.04.2021 22:46 0,4 C 0,0 C -1,1 C 95 % 1013,2 hPa 0,0 l/m 0 min 0 min 0 W/m 12,9 km/h (3 Bft) 97,87 %
06.04.2021 22:48 0,4 C 0,0 C -1,1 C 95 % 1013,3 hPa 0,0 l/m 0 min 0 min 0 W/m 12,9 km/h (3 Bft) 97,87 %
06.04.2021 22:50 0,4 C 0,0 C -1,1 C 95 % 1013,3 hPa 0,0 l/m 0 min 0 min 0 W/m 16,1 km/h (3 Bft) 100,00 %
06.04.2021 22:52 0,4 C 0,0 C -1,1 C 95 % 1013,4 hPa 0,0 l/m 0 min 0 min 0 W/m 12,9 km/h (3 Bft) 100,00 %
06.04.2021 22:54 0,4 C 0,0 C -1,1 C 95 % 1013,4 hPa 0,0 l/m 0 min 0 min 0 W/m 16,1 km/h (3 Bft) 100,00 %
06.04.2021 22:56 0,4 C 0,0 C -1,1 C 96 % 1013,4 hPa 0,0 l/m 0 min 0 min 0 W/m 19,3 km/h (3 Bft) 100,00 %
06.04.2021 22:58 0,4 C 0,0 C -1,1 C 95 % 1013,3 hPa 0,0 l/m 0 min 0 min 0 W/m 16,1 km/h (3 Bft) 100,00 %
06.04.2021 23:00 0,4 C 0,0 C -1,1 C 95 % 1013,4 hPa 0,0 l/m 0 min 0 min 0 W/m 16,1 km/h (3 Bft) 100,00 %
06.04.2021 23:02 0,4 C 0,0 C -1,1 C 95 % 1013,3 hPa 0,0 l/m 0 min 0 min 0 W/m 12,9 km/h (3 Bft) 97,87 %
06.04.2021 23:04 0,4 C 0,0 C -1,1 C 95 % 1013,3 hPa 0,0 l/m 0 min 0 min 0 W/m 9,7 km/h (2 Bft) 100,00 %
06.04.2021 23:06 0,4 C 0,0 C -1,1 C 95 % 1013,4 hPa 0,0 l/m 0 min 0 min 0 W/m 9,7 km/h (2 Bft) 98,00 %
06.04.2021 23:08 0,4 C 0,0 C -1,1 C 95 % 1013,3 hPa 0,0 l/m 0 min 0 min 0 W/m 9,7 km/h (2 Bft) 97,92 %
06.04.2021 23:10 0,3 C 0,0 C -1,1 C 95 % 1013,3 hPa 0,0 l/m 0 min 0 min 0 W/m 6,4 km/h (2 Bft) 97,83 %
06.04.2021 23:12 0,3 C -0,6 C -1,1 C 95 % 1013,4 hPa 0,0 l/m 0 min 0 min 0 W/m 9,7 km/h (2 Bft) 97,87 %
06.04.2021 23:14 0,3 C -0,6 C -1,1 C 95 % 1013,4 hPa 0,0 l/m 0 min 0 min 0 W/m 6,4 km/h (2 Bft) 97,87 %
06.04.2021 23:16 0,3 C -0,6 C -1,6 C 96 % 1013,4 hPa 0,0 l/m 0 min 0 min 0 W/m 6,4 km/h (2 Bft) 97,87 %
06.04.2021 23:18 0,3 C 0,0 C -1,6 C 96 % 1013,3 hPa 0,0 l/m 0 min 0 min 0 W/m 6,4 km/h (2 Bft) 97,87 %
06.04.2021 23:20 0,3 C -0,6 C -1,1 C 96 % 1013,4 hPa 0,0 l/m 0 min 0 min 0 W/m 3,2 km/h (1 Bft) 93,62 %
06.04.2021 23:22 0,3 C -0,6 C -1,6 C 96 % 1013,4 hPa 0,0 l/m 0 min 0 min 0 W/m 6,4 km/h (2 Bft) 93,62 %
06.04.2021 23:24 0,3 C -0,6 C -1,1 C 96 % 1013,5 hPa 0,0 l/m 0 min 0 min 0 W/m 6,4 km/h (2 Bft) 95,74 %
06.04.2021 23:26 0,3 C -0,6 C -1,1 C 96 % 1013,5 hPa 0,0 l/m 0 min 0 min 0 W/m 9,7 km/h (2 Bft) 93,62 %
06.04.2021 23:28 0,3 C 0,0 C -1,1 C 96 % 1013,4 hPa 0,0 l/m 0 min 0 min 0 W/m 9,7 km/h (2 Bft) 95,65 %
06.04.2021 23:30 0,3 C 0,0 C -1,1 C 96 % 1013,5 hPa 0,0 l/m 0 min 0 min 0 W/m 12,9 km/h (3 Bft) 93,62 %
06.04.2021 23:32 0,2 C -0,6 C -1,6 C 96 % 1013,4 hPa 0,0 l/m 0 min 0 min 0 W/m 6,4 km/h (2 Bft) 97,14 %
06.04.2021 23:34 0,2 C -0,6 C -1,6 C 96 % 1013,4 hPa 0,0 l/m 0 min 0 min 0 W/m 6,4 km/h (2 Bft) 93,62 %
06.04.2021 23:36 0,1 C -0,6 C -1,6 C 96 % 1013,4 hPa 0,0 l/m 0 min 0 min 0 W/m 6,4 km/h (2 Bft) 95,74 %
06.04.2021 23:38 0,1 C -0,6 C -1,6 C 96 % 1013,5 hPa 0,0 l/m 0 min 0 min 0 W/m 3,2 km/h (1 Bft) 96,61 %
06.04.2021 23:40 0,1 C -0,6 C -1,6 C 96 % 1013,4 hPa 0,0 l/m 0 min 0 min 0 W/m 6,4 km/h (2 Bft) 94,29 %
06.04.2021 23:42 0,1 C -0,6 C -1,6 C 95 % 1013,5 hPa 0,0 l/m 0 min 0 min 0 W/m 6,4 km/h (2 Bft) 95,65 %
06.04.2021 23:44 0,1 C -0,6 C -1,6 C 96 % 1013,5 hPa 0,0 l/m 0 min 0 min 0 W/m 16,1 km/h (3 Bft) 95,74 %
06.04.2021 23:46 0,1 C -0,6 C -1,6 C 96 % 1013,5 hPa 0,0 l/m 0 min 0 min 0 W/m 6,4 km/h (2 Bft) 93,62 %
06.04.2021 23:48 0,1 C -0,6 C -1,6 C 96 % 1013,5 hPa 0,0 l/m 0 min 0 min 0 W/m 6,4 km/h (2 Bft) 95,74 %
06.04.2021 23:50 0,1 C -0,6 C -1,6 C 96 % 1013,6 hPa 0,0 l/m 0 min 0 min 0 W/m 6,4 km/h (2 Bft) 95,74 %
06.04.2021 23:52 0,1 C -0,6 C -1,6 C 96 % 1013,5 hPa 0,0 l/m 0 min 0 min 0 W/m 6,4 km/h (2 Bft) 97,87 %
06.04.2021 23:54 0,1 C -0,6 C -1,6 C 96 % 1013,6 hPa 0,0 l/m 0 min 0 min 0 W/m 3,2 km/h (1 Bft) 95,65 %
06.04.2021 23:56 0,0 C -0,6 C -1,6 C 96 % 1013,6 hPa 0,0 l/m 0 min 0 min 0 W/m 6,4 km/h (2 Bft) 95,74 %
06.04.2021 23:58 0,0 C -0,6 C -1,6 C 96 % 1013,6 hPa 0,0 l/m 0 min 0 min 0 W/m 6,4 km/h (2 Bft) 95,74 %
_ Min-Zeit 23:56 22:20 14:32 13:12 18:28 - - - - 06:16 15:52
Minimum _ 0,0 C -0,6 C -2,7 C 76 % 1011,4 hPa - - - - 3,2 km/h (1 Bft) 56,52 %
_ Max-Zeit 13:06 13:04 12:36 22:56 08:28 04:10 18:08 00:54 14:08 20:54 00:00
Maximum _ 5,1 C 9,4 C 8,4 C 96 % 1013,9 hPa 0,2 l/m 4 min 2 min 991 W/m 38,6 km/h
N-NO (5 Bft)
100,00 %
Durchschnitt _ 1,8 C 2,0 C 0,2 C 91 % 1012,9 hPa #3,0 l/m #5:00 h #3:06 h 236 W/m 15,4 km/h (3 Bft) 97,42 %
© 2021 W. Hausmann